Wetterdaten: Mittwoch, 01.02.2017
Datum Zeit Temp. Aussen Temp. o. S. +5cm Feuchte Auss BlattFeu 1 Luftdruck Regen Sonnenschein Regendauer Solar Windben Empfang
01.02.2017 00:00 2,1 C 1,7 C -0,6 C 91 % 0 lf 1017,0 hPa 0,0 l/m 0 min 0 min 5 W/m 10,5 km/h (2 Bft) 93,62 %
01.02.2017 00:02 2,1 C 2,2 C -0,6 C 91 % 0 lf 1016,9 hPa 0,0 l/m 0 min 0 min 5 W/m 6,3 km/h (2 Bft) 10,00 %
01.02.2017 00:05 1,9 C 1,7 C -0,6 C 91 % 0 lf 1016,9 hPa 0,0 l/m 0 min 0 min 5 W/m 16,7 km/h (3 Bft) 10,00 %
01.02.2017 00:06 1,9 C 2,2 C -0,6 C 91 % 0 lf 1016,9 hPa 0,0 l/m 0 min 0 min 5 W/m 16,7 km/h (3 Bft) 10,00 %
01.02.2017 00:08 1,9 C 2,2 C 0,0 C 91 % 0 lf 1016,9 hPa 0,0 l/m 0 min 0 min 5 W/m 16,7 km/h (3 Bft) 10,00 %
01.02.2017 00:10 1,9 C 2,2 C 0,0 C 91 % 0 lf 1016,9 hPa 0,0 l/m 0 min 0 min 5 W/m 16,7 km/h (3 Bft) 10,00 %
01.02.2017 00:12 1,9 C 1,7 C -0,6 C 91 % 0 lf 1016,9 hPa 0,0 l/m 0 min 0 min 5 W/m 16,7 km/h (3 Bft) 92,41 %
01.02.2017 00:14 1,9 C 1,7 C -0,6 C 91 % 0 lf 1016,9 hPa 0,0 l/m 0 min 0 min 5 W/m 12,6 km/h (3 Bft) 100,00 %
01.02.2017 00:16 1,8 C 1,7 C -0,6 C 91 % 0 lf 1017,0 hPa 0,0 l/m 0 min 0 min 5 W/m 8,4 km/h (2 Bft) 95,74 %
01.02.2017 00:18 1,8 C 1,7 C -0,6 C 91 % 0 lf 1016,9 hPa 0,0 l/m 0 min 0 min 5 W/m 10,5 km/h (2 Bft) 95,74 %
01.02.2017 00:20 1,8 C 1,7 C -0,6 C 91 % 0 lf 1016,9 hPa 0,0 l/m 0 min 0 min 5 W/m 10,5 km/h (2 Bft) 93,62 %
01.02.2017 00:22 1,8 C 1,7 C -0,6 C 91 % 0 lf 1016,9 hPa 0,0 l/m 0 min 0 min 5 W/m 6,3 km/h (2 Bft) 95,74 %
01.02.2017 00:24 1,7 C 1,1 C -1,1 C 91 % 0 lf 1016,9 hPa 0,0 l/m 0 min 0 min 5 W/m 8,4 km/h (2 Bft) 97,87 %
01.02.2017 00:26 1,7 C 1,7 C -1,1 C 91 % 0 lf 1016,8 hPa 0,0 l/m 0 min 0 min 1 W/m 10,5 km/h (2 Bft) 97,83 %
01.02.2017 00:28 1,7 C 1,7 C -0,6 C 91 % 0 lf 1016,8 hPa 0,0 l/m 0 min 0 min 0 W/m 10,5 km/h (2 Bft) 95,74 %
01.02.2017 00:30 1,7 C 1,7 C -0,6 C 91 % 0 lf 1016,9 hPa 0,0 l/m 0 min 0 min 0 W/m 10,5 km/h (2 Bft) 93,62 %
01.02.2017 00:32 1,7 C 1,7 C -0,6 C 91 % 0 lf 1016,8 hPa 0,0 l/m 0 min 0 min 0 W/m 10,5 km/h (2 Bft) 95,74 %
01.02.2017 00:34 1,7 C 1,1 C -1,1 C 91 % 0 lf 1016,8 hPa 0,0 l/m 0 min 0 min 0 W/m 10,5 km/h (2 Bft) 91,49 %
01.02.2017 00:36 1,6 C 1,1 C -1,1 C 91 % 0 lf 1016,8 hPa 0,0 l/m 0 min 0 min 0 W/m 14,6 km/h (3 Bft) 93,62 %
01.02.2017 00:38 1,6 C 1,1 C -1,1 C 91 % 0 lf 1016,8 hPa 0,0 l/m 0 min 0 min 0 W/m 10,5 km/h (2 Bft) 95,65 %
01.02.2017 00:40 1,6 C 1,1 C -1,1 C 91 % 0 lf 1016,9 hPa 0,0 l/m 0 min 0 min 0 W/m 8,4 km/h (2 Bft) 95,74 %
01.02.2017 00:42 1,6 C 1,1 C -1,1 C 91 % 0 lf 1016,9 hPa 0,0 l/m 0 min 0 min 0 W/m 8,4 km/h (2 Bft) 95,74 %
01.02.2017 00:44 1,5 C 1,1 C -1,1 C 91 % 0 lf 1016,9 hPa 0,0 l/m 0 min 0 min 5 W/m 8,4 km/h (2 Bft) 95,74 %
01.02.2017 00:46 1,5 C 1,1 C -1,1 C 91 % 0 lf 1016,9 hPa 0,0 l/m 0 min 0 min 5 W/m 10,5 km/h (2 Bft) 91,49 %
01.02.2017 00:48 1,5 C 1,1 C -1,1 C 91 % 0 lf 1016,9 hPa 0,0 l/m 0 min 0 min 5 W/m 10,5 km/h (2 Bft) 95,65 %
01.02.2017 00:50 1,4 C 1,1 C -1,1 C 91 % 1 lf 1016,9 hPa 0,0 l/m 0 min 0 min 5 W/m 10,5 km/h (2 Bft) 91,49 %
01.02.2017 00:52 1,4 C 1,1 C -1,1 C 91 % 1 lf 1016,9 hPa 0,0 l/m 0 min 0 min 5 W/m 12,6 km/h (3 Bft) 91,49 %
01.02.2017 00:54 1,4 C 1,1 C -1,1 C 91 % 0 lf 1016,9 hPa 0,0 l/m 0 min 0 min 5 W/m 14,6 km/h (3 Bft) 95,74 %
01.02.2017 00:56 1,4 C 1,1 C -1,1 C 91 % 1 lf 1016,9 hPa 0,0 l/m 0 min 0 min 5 W/m 8,4 km/h (2 Bft) 91,49 %
01.02.2017 00:58 1,3 C 1,1 C -1,1 C 91 % 1 lf 1016,9 hPa 0,0 l/m 0 min 0 min 5 W/m 14,6 km/h (3 Bft) 93,62 %
01.02.2017 01:00 1,3 C 1,1 C -1,1 C 91 % 0 lf 1016,9 hPa 0,0 l/m 0 min 0 min 5 W/m 10,5 km/h (2 Bft) 97,87 %
01.02.2017 01:02 1,3 C 1,1 C -1,1 C 91 % 0 lf 1016,9 hPa 0,0 l/m 0 min 0 min 5 W/m 10,5 km/h (2 Bft) 93,48 %
01.02.2017 01:04 1,3 C 1,1 C -1,1 C 92 % 0 lf 1016,8 hPa 0,0 l/m 0 min 0 min 5 W/m 16,7 km/h (3 Bft) 95,74 %
01.02.2017 01:06 1,3 C 1,1 C -1,1 C 91 % 0 lf 1016,8 hPa 0,0 l/m 0 min 0 min 5 W/m 12,6 km/h (3 Bft) 97,87 %
01.02.2017 01:08 1,2 C 1,7 C -0,6 C 91 % 0 lf 1016,7 hPa 0,0 l/m 0 min 0 min 5 W/m 14,6 km/h (3 Bft) 95,74 %
01.02.2017 01:10 1,2 C 1,7 C -0,6 C 92 % 0 lf 1016,9 hPa 0,0 l/m 0 min 0 min 5 W/m 16,7 km/h (3 Bft) 95,74 %
01.02.2017 01:12 1,2 C 1,7 C -0,6 C 92 % 0 lf 1016,8 hPa 0,0 l/m 0 min 0 min 5 W/m 18,8 km/h (3 Bft) 91,30 %
01.02.2017 01:14 1,2 C 1,7 C -0,6 C 92 % 0 lf 1016,7 hPa 0,0 l/m 0 min 0 min 5 W/m 18,8 km/h (3 Bft) 93,62 %
01.02.2017 01:16 1,2 C 1,7 C 0,0 C 92 % 0 lf 1016,7 hPa 0,0 l/m 0 min 0 min 5 W/m 12,6 km/h (3 Bft) 95,74 %
01.02.2017 01:18 1,2 C 1,7 C 0,0 C 92 % 0 lf 1016,8 hPa 0,0 l/m 0 min 0 min 5 W/m 20,9 km/h (4 Bft) 97,87 %
01.02.2017 01:20 1,3 C 1,7 C 0,0 C 92 % 0 lf 1016,7 hPa 0,0 l/m 0 min 0 min 5 W/m 18,8 km/h (3 Bft) 95,74 %
01.02.2017 01:22 1,3 C 2,2 C 0,0 C 92 % 0 lf 1016,7 hPa 0,0 l/m 0 min 0 min 5 W/m 20,9 km/h (4 Bft) 95,74 %
01.02.2017 01:24 1,3 C 1,7 C 0,0 C 92 % 0 lf 1016,7 hPa 0,0 l/m 0 min 0 min 5 W/m 18,8 km/h (3 Bft) 93,48 %
01.02.2017 01:26 1,3 C 2,2 C 0,0 C 92 % 0 lf 1016,8 hPa 0,0 l/m 0 min 0 min 5 W/m 14,6 km/h (3 Bft) 91,49 %
01.02.2017 01:28 1,3 C 2,2 C 0,0 C 92 % 0 lf 1016,8 hPa 0,0 l/m 0 min 0 min 5 W/m 18,8 km/h (3 Bft) 95,74 %
01.02.2017 01:30 1,4 C 2,2 C 0,0 C 92 % 0 lf 1016,7 hPa 0,0 l/m 0 min 0 min 5 W/m 23,0 km/h (4 Bft) 95,74 %
01.02.2017 01:32 1,4 C 2,2 C 0,6 C 92 % 0 lf 1016,7 hPa 0,0 l/m 0 min 0 min 5 W/m 23,0 km/h (4 Bft) 93,62 %
01.02.2017 01:34 1,4 C 2,2 C 0,6 C 92 % 0 lf 1016,7 hPa 0,0 l/m 0 min 0 min 5 W/m 37,7 km/h (5 Bft) 93,48 %
01.02.2017 01:36 1,4 C 2,2 C 0,6 C 92 % 0 lf 1016,6 hPa 0,0 l/m 0 min 0 min 5 W/m 23,0 km/h (4 Bft) 91,49 %
01.02.2017 01:38 1,4 C 2,2 C 0,6 C 93 % 0 lf 1016,7 hPa 0,0 l/m 0 min 0 min 5 W/m 20,9 km/h (4 Bft) 93,62 %
01.02.2017 01:40 1,5 C 2,2 C 0,6 C 93 % 0 lf 1016,6 hPa 0,0 l/m 0 min 0 min 5 W/m 27,2 km/h (4 Bft) 97,87 %
01.02.2017 01:42 1,5 C 2,2 C 0,6 C 93 % 0 lf 1016,7 hPa 0,0 l/m 0 min 0 min 5 W/m 23,0 km/h (4 Bft) 97,87 %
01.02.2017 01:44 1,6 C 2,2 C 0,6 C 92 % 0 lf 1016,8 hPa 0,0 l/m 0 min 0 min 5 W/m 16,7 km/h (3 Bft) 97,87 %
01.02.2017 01:46 1,6 C 2,2 C 0,6 C 92 % 0 lf 1016,6 hPa 0,0 l/m 0 min 0 min 5 W/m 29,3 km/h (5 Bft) 95,65 %
01.02.2017 01:48 1,6 C 2,2 C 0,6 C 93 % 0 lf 1016,6 hPa 0,0 l/m 0 min 0 min 5 W/m 25,1 km/h (4 Bft) 100,00 %
01.02.2017 01:50 1,6 C 2,2 C 0,6 C 93 % 0 lf 1016,6 hPa 0,0 l/m 0 min 0 min 5 W/m 25,1 km/h (4 Bft) 95,74 %
01.02.2017 01:52 1,6 C 2,2 C 0,6 C 92 % 0 lf 1016,6 hPa 0,0 l/m 0 min 0 min 5 W/m 31,4 km/h (5 Bft) 97,87 %
01.02.2017 01:54 1,7 C 2,2 C 0,6 C 92 % 0 lf 1016,7 hPa 0,0 l/m 0 min 0 min 5 W/m 27,2 km/h (4 Bft) 97,87 %
01.02.2017 01:56 1,7 C 2,2 C 0,6 C 92 % 0 lf 1016,7 hPa 0,0 l/m 0 min 0 min 5 W/m 23,0 km/h (4 Bft) 93,62 %
01.02.2017 01:58 1,7 C 2,2 C 0,6 C 92 % 0 lf 1016,7 hPa 0,0 l/m 0 min 0 min 5 W/m 20,9 km/h (4 Bft) 97,83 %
01.02.2017 02:00 1,7 C 2,2 C 0,6 C 92 % 0 lf 1016,7 hPa 0,0 l/m 0 min 0 min 5 W/m 27,2 km/h (4 Bft) 95,74 %
01.02.2017 02:02 1,7 C 2,2 C 0,6 C 92 % 0 lf 1016,7 hPa 0,0 l/m 0 min 0 min 5 W/m 25,1 km/h (4 Bft) 95,74 %
01.02.2017 02:04 1,7 C 2,2 C 0,6 C 92 % 0 lf 1016,7 hPa 0,0 l/m 0 min 0 min 5 W/m 16,7 km/h (3 Bft) 100,00 %
01.02.2017 02:06 1,7 C 2,2 C 0,6 C 92 % 0 lf 1016,6 hPa 0,0 l/m 0 min 0 min 5 W/m 20,9 km/h (4 Bft) 97,87 %
01.02.2017 02:08 1,7 C 2,2 C 0,6 C 92 % 0 lf 1016,7 hPa 0,0 l/m 0 min 0 min 5 W/m 20,9 km/h (4 Bft) 97,87 %
01.02.2017 02:10 1,7 C 2,2 C 0,6 C 92 % 0 lf 1016,7 hPa 0,0 l/m 0 min 0 min 5 W/m 18,8 km/h (3 Bft) 95,65 %
01.02.2017 02:12 1,8 C 2,2 C 0,6 C 92 % 0 lf 1016,7 hPa 0,0 l/m 0 min 0 min 5 W/m 20,9 km/h (4 Bft) 97,87 %
01.02.2017 02:14 1,7 C 2,2 C 0,6 C 92 % 0 lf 1016,6 hPa 0,0 l/m 0 min 0 min 5 W/m 20,9 km/h (4 Bft) 93,62 %
01.02.2017 02:16 1,8 C 2,2 C 0,6 C 92 % 0 lf 1016,5 hPa 0,0 l/m 0 min 0 min 5 W/m 14,6 km/h (3 Bft) 91,49 %
01.02.2017 02:18 1,8 C 2,2 C 0,6 C 92 % 0 lf 1016,5 hPa 0,0 l/m 0 min 0 min 5 W/m 25,1 km/h (4 Bft) 93,62 %
01.02.2017 02:20 1,8 C 2,2 C 0,6 C 91 % 0 lf 1016,5 hPa 0,0 l/m 0 min 0 min 5 W/m 20,9 km/h (4 Bft) 97,87 %
01.02.2017 02:22 1,8 C 2,2 C 0,6 C 91 % 0 lf 1016,6 hPa 0,0 l/m 0 min 0 min 5 W/m 16,7 km/h (3 Bft) 91,30 %
01.02.2017 02:24 1,8 C 2,2 C 0,6 C 91 % 0 lf 1016,6 hPa 0,0 l/m 0 min 0 min 5 W/m 16,7 km/h (3 Bft) 97,87 %
01.02.2017 02:26 1,8 C 2,2 C 0,6 C 91 % 0 lf 1016,6 hPa 0,0 l/m 0 min 0 min 5 W/m 23,0 km/h (4 Bft) 95,74 %
01.02.2017 02:28 1,8 C 2,2 C 0,6 C 91 % 0 lf 1016,5 hPa 0,0 l/m 0 min 0 min 5 W/m 20,9 km/h (4 Bft) 95,74 %
01.02.2017 02:30 1,8 C 2,2 C 0,6 C 91 % 0 lf 1016,6 hPa 0,0 l/m 0 min 0 min 5 W/m 23,0 km/h (4 Bft) 97,87 %
01.02.2017 02:32 1,8 C 2,2 C 0,6 C 91 % 0 lf 1016,6 hPa 0,0 l/m 0 min 0 min 5 W/m 20,9 km/h (4 Bft) 95,74 %
01.02.2017 02:34 1,8 C 2,2 C 0,6 C 91 % 0 lf 1016,6 hPa 0,0 l/m 0 min 0 min 5 W/m 23,0 km/h (4 Bft) 97,83 %
01.02.2017 02:36 1,8 C 2,2 C 0,6 C 91 % 0 lf 1016,5 hPa 0,0 l/m 0 min 0 min 5 W/m 23,0 km/h (4 Bft) 95,74 %
01.02.2017 02:38 1,8 C 2,2 C 0,6 C 91 % 0 lf 1016,6 hPa 0,0 l/m 0 min 0 min 5 W/m 16,7 km/h (3 Bft) 95,74 %
01.02.2017 02:40 1,8 C 2,2 C 0,6 C 91 % 0 lf 1016,6 hPa 0,0 l/m 0 min 0 min 5 W/m 29,3 km/h (5 Bft) 97,87 %
01.02.2017 02:42 1,8 C 2,2 C 0,6 C 91 % 0 lf 1016,6 hPa 0,0 l/m 0 min 0 min 5 W/m 23,0 km/h (4 Bft) 93,62 %
01.02.2017 02:44 1,8 C 2,2 C 0,6 C 91 % 0 lf 1016,6 hPa 0,0 l/m 0 min 0 min 5 W/m 20,9 km/h (4 Bft) 95,65 %
01.02.2017 02:46 1,8 C 2,2 C 0,6 C 91 % 0 lf 1016,5 hPa 0,0 l/m 0 min 0 min 5 W/m 18,8 km/h (3 Bft) 93,62 %
01.02.2017 02:48 1,8 C 2,2 C 0,6 C 91 % 0 lf 1016,6 hPa 0,0 l/m 0 min 0 min 5 W/m 12,6 km/h (3 Bft) 93,62 %
01.02.2017 02:50 1,8 C 2,2 C 0,6 C 91 % 0 lf 1016,6 hPa 0,0 l/m 0 min 0 min 5 W/m 16,7 km/h (3 Bft) 93,62 %
01.02.2017 02:52 1,8 C 2,2 C 0,6 C 91 % 0 lf 1016,6 hPa 0,0 l/m 0 min 0 min 5 W/m 20,9 km/h (4 Bft) 95,74 %
01.02.2017 02:54 1,8 C 2,2 C 0,6 C 91 % 0 lf 1016,6 hPa 0,0 l/m 0 min 0 min 5 W/m 18,8 km/h (3 Bft) 93,62 %
01.02.2017 02:56 1,8 C 2,2 C 0,6 C 91 % 0 lf 1016,6 hPa 0,0 l/m 0 min 0 min 5 W/m 20,9 km/h (4 Bft) 95,65 %
01.02.2017 02:58 1,8 C 2,2 C 0,6 C 91 % 0 lf 1016,5 hPa 0,0 l/m 0 min 0 min 5 W/m 20,9 km/h (4 Bft) 93,62 %
01.02.2017 03:00 1,8 C 2,2 C 0,6 C 91 % 0 lf 1016,6 hPa 0,0 l/m 0 min 0 min 5 W/m 18,8 km/h (3 Bft) 87,23 %
01.02.2017 03:02 1,8 C 2,2 C 0,6 C 90 % 0 lf 1016,5 hPa 0,0 l/m 0 min 0 min 5 W/m 23,0 km/h (4 Bft) 97,87 %
01.02.2017 03:04 1,8 C 2,2 C 0,6 C 90 % 0 lf 1016,5 hPa 0,0 l/m 0 min 0 min 5 W/m 25,1 km/h (4 Bft) 97,87 %
01.02.2017 03:06 1,8 C 2,2 C 0,6 C 90 % 0 lf 1016,5 hPa 0,0 l/m 0 min 0 min 5 W/m 16,7 km/h (3 Bft) 91,49 %
01.02.2017 03:08 1,8 C 2,2 C 0,6 C 90 % 0 lf 1016,5 hPa 0,0 l/m 0 min 0 min 5 W/m 16,7 km/h (3 Bft) 86,96 %
01.02.2017 03:10 1,8 C 2,2 C 0,6 C 90 % 0 lf 1016,5 hPa 0,0 l/m 0 min 0 min 5 W/m 18,8 km/h (3 Bft) 93,62 %
01.02.2017 03:12 1,8 C 2,2 C 0,6 C 90 % 0 lf 1016,5 hPa 0,0 l/m 0 min 0 min 5 W/m 18,8 km/h (3 Bft) 93,62 %
01.02.2017 03:14 1,8 C 2,2 C 0,6 C 90 % 0 lf 1016,4 hPa 0,0 l/m 0 min 0 min 5 W/m 16,7 km/h (3 Bft) 95,74 %
01.02.2017 03:16 1,8 C 2,2 C 0,6 C 90 % 0 lf 1016,5 hPa 0,0 l/m 0 min 0 min 5 W/m 16,7 km/h (3 Bft) 91,49 %
01.02.2017 03:18 1,8 C 2,2 C 0,6 C 90 % 0 lf 1016,4 hPa 0,0 l/m 0 min 0 min 5 W/m 27,2 km/h (4 Bft) 91,49 %
01.02.2017 03:20 1,8 C 2,2 C 0,6 C 90 % 0 lf 1016,4 hPa 0,0 l/m 0 min 0 min 5 W/m 20,9 km/h (4 Bft) 95,65 %
01.02.2017 03:22 1,8 C 2,2 C 0,6 C 90 % 0 lf 1016,3 hPa 0,0 l/m 0 min 0 min 5 W/m 18,8 km/h (3 Bft) 93,62 %
01.02.2017 03:24 1,8 C 2,2 C 0,6 C 90 % 0 lf 1016,4 hPa 0,0 l/m 0 min 0 min 5 W/m 18,8 km/h (3 Bft) 95,74 %
01.02.2017 03:26 1,8 C 2,2 C 0,6 C 90 % 0 lf 1016,3 hPa 0,0 l/m 0 min 0 min 5 W/m 18,8 km/h (3 Bft) 91,49 %
01.02.2017 03:28 1,8 C 1,7 C 0,0 C 90 % 0 lf 1016,3 hPa 0,0 l/m 0 min 0 min 5 W/m 23,0 km/h (4 Bft) 91,49 %
01.02.2017 03:30 1,7 C 1,7 C 0,0 C 90 % 0 lf 1016,3 hPa 0,0 l/m 0 min 0 min 5 W/m 23,0 km/h (4 Bft) 95,74 %
01.02.2017 03:32 1,7 C 1,7 C 0,0 C 90 % 0 lf 1016,3 hPa 0,0 l/m 0 min 0 min 5 W/m 18,8 km/h (3 Bft) 95,65 %
01.02.2017 03:34 1,7 C 1,7 C 0,0 C 90 % 0 lf 1016,3 hPa 0,0 l/m 0 min 0 min 5 W/m 18,8 km/h (3 Bft) 95,74 %
01.02.2017 03:36 1,7 C 1,7 C 0,0 C 90 % 0 lf 1016,2 hPa 0,0 l/m 0 min 0 min 5 W/m 29,3 km/h (5 Bft) 95,74 %
01.02.2017 03:38 1,7 C 1,7 C 0,0 C 90 % 0 lf 1016,2 hPa 0,0 l/m 0 min 0 min 5 W/m 29,3 km/h (5 Bft) 100,00 %
01.02.2017 03:40 1,7 C 1,7 C 0,0 C 90 % 0 lf 1016,2 hPa 0,0 l/m 0 min 0 min 5 W/m 20,9 km/h (4 Bft) 95,74 %
01.02.2017 03:42 1,6 C 1,7 C 0,0 C 90 % 0 lf 1016,2 hPa 0,0 l/m 0 min 0 min 5 W/m 25,1 km/h (4 Bft) 95,74 %
01.02.2017 03:44 1,6 C 1,7 C 0,0 C 90 % 0 lf 1016,2 hPa 0,0 l/m 0 min 0 min 5 W/m 16,7 km/h (3 Bft) 100,00 %
01.02.2017 03:46 1,6 C 1,7 C -0,6 C 90 % 0 lf 1016,1 hPa 0,0 l/m 0 min 0 min 5 W/m 20,9 km/h (4 Bft) 97,87 %
01.02.2017 03:48 1,6 C 1,7 C -0,6 C 90 % 0 lf 1016,2 hPa 0,0 l/m 0 min 0 min 5 W/m 20,9 km/h (4 Bft) 95,74 %
01.02.2017 03:50 1,5 C 1,7 C -0,6 C 90 % 0 lf 1016,2 hPa 0,0 l/m 0 min 0 min 5 W/m 25,1 km/h (4 Bft) 97,87 %
01.02.2017 03:52 1,5 C 1,7 C -0,6 C 90 % 0 lf 1016,2 hPa 0,0 l/m 0 min 0 min 5 W/m 20,9 km/h (4 Bft) 97,87 %
01.02.2017 03:54 1,5 C 1,7 C -0,6 C 90 % 0 lf 1016,2 hPa 0,0 l/m 0 min 0 min 5 W/m 20,9 km/h (4 Bft) 100,00 %
01.02.2017 03:56 1,4 C 1,7 C -0,6 C 90 % 0 lf 1016,2 hPa 0,0 l/m 0 min 0 min 5 W/m 18,8 km/h (3 Bft) 100,00 %
01.02.2017 03:58 1,4 C 1,7 C -0,6 C 90 % 0 lf 1016,2 hPa 0,0 l/m 0 min 0 min 5 W/m 18,8 km/h (3 Bft) 95,74 %
01.02.2017 04:00 1,4 C 1,7 C -0,6 C 90 % 0 lf 1016,2 hPa 0,0 l/m 0 min 0 min 5 W/m 23,0 km/h (4 Bft) 100,00 %
01.02.2017 04:01 1,4 C 1,7 C -0,6 C 90 % 0 lf 1016,2 hPa 0,0 l/m 0 min 0 min 5 W/m 18,8 km/h (3 Bft) 21,74 %
01.02.2017 04:02 1,4 C 1,7 C -0,6 C 90 % 0 lf 1016,3 hPa 0,0 l/m 0 min 0 min 5 W/m 0,0 km/h (0 Bft) 0,00 %
01.02.2017 04:03 1,4 C 1,7 C -0,6 C 90 % 0 lf 1016,2 hPa 0,0 l/m 0 min 0 min 5 W/m 6,3 km/h (2 Bft) 8,70 %
01.02.2017 04:04 1,4 C 1,7 C -0,6 C 90 % 0 lf 1016,3 hPa 0,0 l/m 0 min 0 min 5 W/m 10,5 km/h (2 Bft) 34,78 %
01.02.2017 04:05 1,4 C 1,7 C -0,6 C 90 % 0 lf 1016,3 hPa 0,0 l/m 0 min 0 min 5 W/m 0,0 km/h (0 Bft) 0,00 %
01.02.2017 04:06 1,4 C 1,7 C -0,6 C 90 % 0 lf 1016,3 hPa 0,0 l/m 0 min 0 min 5 W/m 0,0 km/h (0 Bft) 0,00 %
01.02.2017 04:07 1,4 C 1,7 C -0,6 C 90 % 0 lf 1016,3 hPa 0,0 l/m 0 min 0 min 5 W/m 6,3 km/h (2 Bft) 4,35 %
01.02.2017 04:10 1,3 C 1,7 C -0,6 C 90 % 0 lf 1016,5 hPa 0,0 l/m 0 min 0 min 5 W/m 16,7 km/h (3 Bft) 100,00 %
01.02.2017 04:12 1,3 C 1,1 C -0,6 C 90 % 0 lf 1016,4 hPa 0,0 l/m 0 min 0 min 5 W/m 14,6 km/h (3 Bft) 97,87 %
01.02.2017 04:14 1,3 C 1,1 C -0,6 C 91 % 0 lf 1016,4 hPa 0,0 l/m 0 min 0 min 5 W/m 16,7 km/h (3 Bft) 100,00 %
01.02.2017 04:16 1,3 C 1,1 C -0,6 C 91 % 0 lf 1016,4 hPa 0,0 l/m 0 min 0 min 5 W/m 18,8 km/h (3 Bft) 100,00 %
01.02.2017 04:18 1,3 C 1,7 C -0,6 C 91 % 0 lf 1016,4 hPa 0,0 l/m 0 min 0 min 5 W/m 18,8 km/h (3 Bft) 97,83 %
01.02.2017 04:20 1,3 C 1,7 C -0,6 C 90 % 0 lf 1016,3 hPa 0,0 l/m 0 min 0 min 5 W/m 14,6 km/h (3 Bft) 97,87 %
01.02.2017 04:22 1,3 C 1,7 C -0,6 C 90 % 0 lf 1016,3 hPa 0,0 l/m 0 min 0 min 5 W/m 20,9 km/h (4 Bft) 97,87 %
01.02.2017 04:24 1,2 C 1,7 C -0,6 C 90 % 0 lf 1016,2 hPa 0,0 l/m 0 min 0 min 5 W/m 18,8 km/h (3 Bft) 100,00 %
01.02.2017 04:26 1,2 C 1,7 C -0,6 C 91 % 0 lf 1016,1 hPa 0,0 l/m 0 min 0 min 5 W/m 18,8 km/h (3 Bft) 97,87 %
01.02.2017 04:28 1,2 C 1,7 C -0,6 C 91 % 0 lf 1016,1 hPa 0,0 l/m 0 min 0 min 5 W/m 25,1 km/h (4 Bft) 100,00 %
01.02.2017 04:30 1,2 C 1,7 C -0,6 C 91 % 0 lf 1016,1 hPa 0,0 l/m 0 min 0 min 5 W/m 18,8 km/h (3 Bft) 100,00 %
01.02.2017 04:32 1,2 C 1,1 C -0,6 C 91 % 0 lf 1016,2 hPa 0,0 l/m 0 min 0 min 5 W/m 18,8 km/h (3 Bft) 100,00 %
01.02.2017 04:34 1,2 C 1,1 C -0,6 C 91 % 0 lf 1016,1 hPa 0,0 l/m 0 min 0 min 5 W/m 18,8 km/h (3 Bft) 97,87 %
01.02.2017 04:36 1,2 C 1,1 C -0,6 C 91 % 0 lf 1016,1 hPa 0,0 l/m 0 min 0 min 5 W/m 25,1 km/h (4 Bft) 97,87 %
01.02.2017 04:38 1,2 C 1,1 C -0,6 C 91 % 0 lf 1016,1 hPa 0,0 l/m 0 min 0 min 5 W/m 18,8 km/h (3 Bft) 93,62 %
01.02.2017 04:40 1,2 C 1,1 C -0,6 C 91 % 0 lf 1016,1 hPa 0,0 l/m 0 min 0 min 5 W/m 18,8 km/h (3 Bft) 97,87 %
01.02.2017 04:42 1,2 C 1,1 C -0,6 C 91 % 0 lf 1016,1 hPa 0,0 l/m 0 min 0 min 5 W/m 16,7 km/h (3 Bft) 97,83 %
01.02.2017 04:44 1,2 C 1,1 C -0,6 C 91 % 0 lf 1016,0 hPa 0,0 l/m 0 min 0 min 5 W/m 23,0 km/h (4 Bft) 97,87 %
01.02.2017 04:46 1,2 C 1,1 C -0,6 C 91 % 0 lf 1016,0 hPa 0,0 l/m 0 min 0 min 5 W/m 18,8 km/h (3 Bft) 95,74 %
01.02.2017 04:48 1,2 C 1,1 C -0,6 C 91 % 0 lf 1016,0 hPa 0,0 l/m 0 min 0 min 5 W/m 18,8 km/h (3 Bft) 97,87 %
01.02.2017 04:50 1,1 C 1,1 C -0,6 C 91 % 0 lf 1016,0 hPa 0,0 l/m 0 min 0 min 5 W/m 16,7 km/h (3 Bft) 95,74 %
01.02.2017 04:52 1,1 C 1,1 C -0,6 C 91 % 0 lf 1016,0 hPa 0,0 l/m 0 min 0 min 5 W/m 16,7 km/h (3 Bft) 97,83 %
01.02.2017 04:54 1,1 C 1,1 C -0,6 C 91 % 0 lf 1016,0 hPa 0,0 l/m 0 min 0 min 5 W/m 16,7 km/h (3 Bft) 97,87 %
01.02.2017 04:56 1,1 C 1,1 C -0,6 C 91 % 0 lf 1016,0 hPa 0,0 l/m 0 min 0 min 5 W/m 20,9 km/h (4 Bft) 95,74 %
01.02.2017 04:58 1,1 C 1,1 C -0,6 C 91 % 0 lf 1015,9 hPa 0,0 l/m 0 min 0 min 5 W/m 16,7 km/h (3 Bft) 95,74 %
01.02.2017 05:00 1,1 C 1,7 C -0,6 C 91 % 0 lf 1015,9 hPa 0,0 l/m 0 min 0 min 5 W/m 27,2 km/h (4 Bft) 97,87 %
01.02.2017 05:02 1,1 C 1,1 C -0,6 C 91 % 0 lf 1015,9 hPa 0,0 l/m 0 min 0 min 5 W/m 18,8 km/h (3 Bft) 95,74 %
01.02.2017 05:04 1,1 C 1,1 C -0,6 C 91 % 0 lf 1015,9 hPa 0,0 l/m 0 min 0 min 5 W/m 18,8 km/h (3 Bft) 95,65 %
01.02.2017 05:06 1,1 C 1,1 C -0,6 C 91 % 0 lf 1016,0 hPa 0,0 l/m 0 min 0 min 5 W/m 20,9 km/h (4 Bft) 93,62 %
01.02.2017 05:08 1,1 C 1,1 C -0,6 C 91 % 0 lf 1015,9 hPa 0,0 l/m 0 min 0 min 5 W/m 16,7 km/h (3 Bft) 91,49 %
01.02.2017 05:10 1,1 C 1,1 C -0,6 C 91 % 0 lf 1016,0 hPa 0,0 l/m 0 min 0 min 5 W/m 18,8 km/h (3 Bft) 91,49 %
01.02.2017 05:12 1,1 C 1,1 C -0,6 C 91 % 0 lf 1016,0 hPa 0,0 l/m 0 min 0 min 5 W/m 18,8 km/h (3 Bft) 93,62 %
01.02.2017 05:14 1,1 C 1,1 C -0,6 C 91 % 0 lf 1015,9 hPa 0,0 l/m 0 min 0 min 5 W/m 16,7 km/h (3 Bft) 91,49 %
01.02.2017 05:16 1,1 C 1,1 C -0,6 C 91 % 0 lf 1015,9 hPa 0,0 l/m 0 min 0 min 5 W/m 14,6 km/h (3 Bft) 93,48 %
01.02.2017 05:18 1,1 C 1,1 C -0,6 C 91 % 0 lf 1015,9 hPa 0,0 l/m 0 min 0 min 5 W/m 25,1 km/h (4 Bft) 93,62 %
01.02.2017 05:20 1,1 C 1,1 C -0,6 C 91 % 0 lf 1015,9 hPa 0,0 l/m 0 min 0 min 5 W/m 16,7 km/h (3 Bft) 87,23 %
01.02.2017 05:22 1,1 C 1,1 C -0,6 C 91 % 0 lf 1016,0 hPa 0,0 l/m 0 min 0 min 5 W/m 14,6 km/h (3 Bft) 93,62 %
01.02.2017 05:24 1,1 C 1,1 C -0,6 C 91 % 0 lf 1015,9 hPa 0,0 l/m 0 min 0 min 5 W/m 16,7 km/h (3 Bft) 91,49 %
01.02.2017 05:26 1,1 C 1,1 C -0,6 C 91 % 0 lf 1015,9 hPa 0,0 l/m 0 min 0 min 5 W/m 20,9 km/h (4 Bft) 89,36 %
01.02.2017 05:28 1,1 C 1,1 C -0,6 C 91 % 0 lf 1015,9 hPa 0,0 l/m 0 min 0 min 5 W/m 23,0 km/h (4 Bft) 91,30 %
01.02.2017 05:30 1,1 C 1,1 C -0,6 C 91 % 0 lf 1015,9 hPa 0,0 l/m 0 min 0 min 5 W/m 20,9 km/h (4 Bft) 89,36 %
01.02.2017 05:32 1,1 C 1,1 C -0,6 C 91 % 0 lf 1015,9 hPa 0,0 l/m 0 min 0 min 5 W/m 16,7 km/h (3 Bft) 91,49 %
01.02.2017 05:34 1,1 C 1,1 C -0,6 C 91 % 0 lf 1015,9 hPa 0,0 l/m 0 min 0 min 5 W/m 25,1 km/h (4 Bft) 93,62 %
01.02.2017 05:36 1,1 C 1,1 C -0,6 C 91 % 0 lf 1015,8 hPa 0,0 l/m 0 min 0 min 5 W/m 18,8 km/h (3 Bft) 92,73 %
01.02.2017 05:38 1,1 C 1,1 C -0,6 C 91 % 0 lf 1015,9 hPa 0,0 l/m 0 min 0 min 5 W/m 16,7 km/h (3 Bft) 93,62 %
01.02.2017 05:40 1,1 C 1,1 C -0,6 C 91 % 0 lf 1015,9 hPa 0,0 l/m 0 min 0 min 5 W/m 20,9 km/h (4 Bft) 93,62 %
01.02.2017 05:42 1,1 C 1,1 C -0,6 C 91 % 0 lf 1015,9 hPa 0,0 l/m 0 min 0 min 5 W/m 16,7 km/h (3 Bft) 93,62 %
01.02.2017 05:44 1,1 C 1,1 C -0,6 C 91 % 0 lf 1015,8 hPa 0,0 l/m 0 min 0 min 5 W/m 27,2 km/h (4 Bft) 91,49 %
01.02.2017 05:46 1,1 C 1,1 C -0,6 C 91 % 0 lf 1015,8 hPa 0,0 l/m 0 min 0 min 5 W/m 18,8 km/h (3 Bft) 95,65 %
01.02.2017 05:48 1,1 C 1,1 C -0,6 C 91 % 0 lf 1015,8 hPa 0,0 l/m 0 min 0 min 5 W/m 23,0 km/h (4 Bft) 87,23 %
01.02.2017 05:50 1,1 C 1,1 C -0,6 C 91 % 0 lf 1015,8 hPa 0,0 l/m 0 min 0 min 5 W/m 20,9 km/h (4 Bft) 93,62 %
01.02.2017 05:52 1,1 C 1,1 C -0,6 C 91 % 0 lf 1015,8 hPa 0,0 l/m 0 min 0 min 5 W/m 25,1 km/h (4 Bft) 93,62 %
01.02.2017 05:54 1,1 C 1,1 C -0,6 C 91 % 0 lf 1015,6 hPa 0,0 l/m 0 min 0 min 5 W/m 27,2 km/h (4 Bft) 95,74 %
01.02.2017 05:56 1,1 C 1,1 C -0,6 C 91 % 0 lf 1015,5 hPa 0,0 l/m 0 min 0 min 5 W/m 31,4 km/h (5 Bft) 93,62 %
01.02.2017 05:58 1,1 C 1,1 C -0,6 C 91 % 0 lf 1015,6 hPa 0,0 l/m 0 min 0 min 5 W/m 23,0 km/h (4 Bft) 93,48 %
01.02.2017 06:00 1,1 C 1,1 C -0,6 C 91 % 0 lf 1015,7 hPa 0,0 l/m 0 min 0 min 5 W/m 29,3 km/h (5 Bft) 95,74 %
01.02.2017 06:02 1,1 C 1,1 C -0,6 C 91 % 0 lf 1015,7 hPa 0,0 l/m 0 min 0 min 5 W/m 29,3 km/h (5 Bft) 97,87 %
01.02.2017 06:05 1,1 C 1,7 C -0,6 C 91 % 0 lf 1015,7 hPa 0,0 l/m 0 min 0 min 5 W/m 20,9 km/h (4 Bft) 97,87 %
01.02.2017 06:06 1,1 C 1,1 C -0,6 C 91 % 0 lf 1015,7 hPa 0,0 l/m 0 min 0 min 5 W/m 27,2 km/h (4 Bft) 97,87 %
01.02.2017 06:08 1,1 C 1,7 C -0,6 C 91 % 0 lf 1015,7 hPa 0,0 l/m 0 min 0 min 5 W/m 27,2 km/h (4 Bft) 97,87 %
01.02.2017 06:10 1,1 C 1,1 C -0,6 C 91 % 0 lf 1015,7 hPa 0,0 l/m 0 min 0 min 5 W/m 27,2 km/h (4 Bft) 97,87 %
01.02.2017 06:12 1,1 C 1,1 C -0,6 C 91 % 0 lf 1015,7 hPa 0,0 l/m 0 min 0 min 5 W/m 27,2 km/h (4 Bft) 97,87 %
01.02.2017 06:14 1,1 C 1,1 C -0,6 C 91 % 0 lf 1015,7 hPa 0,0 l/m 0 min 0 min 5 W/m 27,2 km/h (4 Bft) 97,14 %
01.02.2017 06:16 1,1 C 1,1 C -0,6 C 91 % 0 lf 1015,8 hPa 0,0 l/m 0 min 0 min 5 W/m 25,1 km/h (4 Bft) 97,30 %
01.02.2017 06:17 1,1 C 1,1 C -0,6 C 91 % 0 lf 1015,7 hPa 0,0 l/m 0 min 0 min 5 W/m 20,9 km/h (4 Bft) 95,65 %
01.02.2017 06:18 1,1 C 1,1 C -0,6 C 91 % 0 lf 1015,8 hPa 0,0 l/m 0 min 0 min 5 W/m 14,6 km/h (3 Bft) 100,00 %
01.02.2017 06:20 1,1 C 1,1 C -0,6 C 91 % 0 lf 1015,7 hPa 0,0 l/m 0 min 0 min 5 W/m 18,8 km/h (3 Bft) 100,00 %
01.02.2017 06:22 1,1 C 1,1 C -0,6 C 91 % 0 lf 1015,8 hPa 0,0 l/m 0 min 0 min 5 W/m 18,8 km/h (3 Bft) 100,00 %
01.02.2017 06:24 1,1 C 1,1 C -0,6 C 91 % 0 lf 1015,8 hPa 0,0 l/m 0 min 0 min 5 W/m 16,7 km/h (3 Bft) 100,00 %
01.02.2017 06:26 1,1 C 1,1 C -0,6 C 91 % 0 lf 1015,8 hPa 0,0 l/m 0 min 0 min 5 W/m 14,6 km/h (3 Bft) 100,00 %
01.02.2017 06:28 1,1 C 1,1 C -0,6 C 91 % 0 lf 1015,8 hPa 0,0 l/m 0 min 0 min 5 W/m 20,9 km/h (4 Bft) 97,92 %
01.02.2017 06:30 1,1 C 1,1 C -0,6 C 91 % 0 lf 1015,7 hPa 0,0 l/m 0 min 0 min 5 W/m 12,6 km/h (3 Bft) 93,62 %
01.02.2017 06:32 1,1 C 1,1 C -0,6 C 91 % 0 lf 1015,8 hPa 0,0 l/m 0 min 0 min 5 W/m 16,7 km/h (3 Bft) 100,00 %
01.02.2017 06:34 1,1 C 1,1 C -0,6 C 91 % 0 lf 1015,7 hPa 0,0 l/m 0 min 0 min 5 W/m 14,6 km/h (3 Bft) 97,87 %
01.02.2017 06:36 1,1 C 1,1 C -0,6 C 91 % 0 lf 1015,7 hPa 0,0 l/m 0 min 0 min 5 W/m 14,6 km/h (3 Bft) 100,00 %
01.02.2017 06:38 1,1 C 1,1 C -0,6 C 91 % 0 lf 1015,7 hPa 0,0 l/m 0 min 0 min 5 W/m 16,7 km/h (3 Bft) 100,00 %
01.02.2017 06:40 1,1 C 1,1 C -0,6 C 91 % 0 lf 1015,7 hPa 0,0 l/m 0 min 0 min 5 W/m 16,7 km/h (3 Bft) 100,00 %
01.02.2017 06:42 1,1 C 1,1 C -0,6 C 91 % 0 lf 1015,6 hPa 0,0 l/m 0 min 0 min 5 W/m 18,8 km/h (3 Bft) 100,00 %
01.02.2017 06:44 1,0 C 1,1 C -0,6 C 91 % 0 lf 1015,7 hPa 0,0 l/m 0 min 0 min 5 W/m 25,1 km/h (4 Bft) 97,87 %
01.02.2017 06:46 1,1 C 1,1 C -0,6 C 91 % 0 lf 1015,7 hPa 0,0 l/m 0 min 0 min 5 W/m 16,7 km/h (3 Bft) 97,87 %
01.02.2017 06:48 1,0 C 1,1 C -0,6 C 91 % 0 lf 1015,6 hPa 0,0 l/m 0 min 0 min 5 W/m 14,6 km/h (3 Bft) 100,00 %
01.02.2017 06:50 1,0 C 1,1 C -0,6 C 91 % 0 lf 1015,6 hPa 0,0 l/m 0 min 0 min 5 W/m 16,7 km/h (3 Bft) 100,00 %
01.02.2017 06:52 1,0 C 1,1 C -1,1 C 91 % 0 lf 1015,7 hPa 0,0 l/m 0 min 0 min 5 W/m 20,9 km/h (4 Bft) 98,15 %
01.02.2017 06:54 1,0 C 1,1 C -1,1 C 91 % 0 lf 1015,7 hPa 0,0 l/m 0 min 0 min 5 W/m 16,7 km/h (3 Bft) 97,83 %
01.02.2017 06:56 1,0 C 1,1 C -0,6 C 91 % 0 lf 1015,7 hPa 0,0 l/m 0 min 0 min 5 W/m 16,7 km/h (3 Bft) 97,87 %
01.02.2017 06:58 1,0 C 1,1 C -0,6 C 91 % 0 lf 1015,7 hPa 0,0 l/m 0 min 0 min 5 W/m 18,8 km/h (3 Bft) 94,74 %
01.02.2017 07:00 1,0 C 1,1 C -0,6 C 91 % 0 lf 1015,6 hPa 0,0 l/m 0 min 0 min 5 W/m 23,0 km/h (4 Bft) 98,00 %
01.02.2017 07:02 1,0 C 1,1 C -0,6 C 91 % 0 lf 1015,7 hPa 0,0 l/m 0 min 0 min 5 W/m 18,8 km/h (3 Bft) 98,00 %
01.02.2017 07:04 0,9 C 1,1 C -0,6 C 91 % 0 lf 1015,7 hPa 0,0 l/m 0 min 0 min 5 W/m 18,8 km/h (3 Bft) 97,87 %
01.02.2017 07:06 0,9 C 1,1 C -0,6 C 91 % 0 lf 1015,6 hPa 0,0 l/m 0 min 0 min 5 W/m 14,6 km/h (3 Bft) 97,96 %
01.02.2017 07:08 0,9 C 1,1 C -0,6 C 91 % 0 lf 1015,7 hPa 0,0 l/m 0 min 0 min 5 W/m 18,8 km/h (3 Bft) 97,30 %
01.02.2017 07:10 0,9 C 1,1 C -0,6 C 91 % 0 lf 1015,7 hPa 0,0 l/m 0 min 0 min 5 W/m 18,8 km/h (3 Bft) 95,74 %
01.02.2017 07:12 0,9 C 1,1 C -0,6 C 91 % 0 lf 1015,7 hPa 0,0 l/m 0 min 0 min 5 W/m 18,8 km/h (3 Bft) 97,87 %
01.02.2017 07:14 0,9 C 1,1 C -1,1 C 91 % 0 lf 1015,7 hPa 0,0 l/m 0 min 0 min 5 W/m 14,6 km/h (3 Bft) 95,74 %
01.02.2017 07:16 0,9 C 1,1 C -1,1 C 91 % 0 lf 1015,6 hPa 0,0 l/m 0 min 0 min 5 W/m 20,9 km/h (4 Bft) 93,48 %
01.02.2017 07:18 0,9 C 1,1 C -1,1 C 91 % 0 lf 1015,6 hPa 0,0 l/m 0 min 0 min 5 W/m 14,6 km/h (3 Bft) 97,87 %
01.02.2017 07:20 0,9 C 1,1 C -1,1 C 91 % 0 lf 1015,7 hPa 0,0 l/m 0 min 0 min 5 W/m 14,6 km/h (3 Bft) 95,74 %
01.02.2017 07:22 0,9 C 1,1 C -1,1 C 91 % 0 lf 1015,7 hPa 0,0 l/m 0 min 0 min 5 W/m 18,8 km/h (3 Bft) 100,00 %
01.02.2017 07:24 0,9 C 1,1 C -1,1 C 91 % 0 lf 1015,7 hPa 0,0 l/m 0 min 0 min 5 W/m 18,8 km/h (3 Bft) 100,00 %
01.02.2017 07:26 0,9 C 1,1 C -1,1 C 91 % 0 lf 1015,6 hPa 0,0 l/m 0 min 0 min 5 W/m 16,7 km/h (3 Bft) 96,00 %
01.02.2017 07:28 0,9 C 1,1 C -1,1 C 91 % 0 lf 1015,6 hPa 0,0 l/m 0 min 0 min 5 W/m 23,0 km/h (4 Bft) 100,00 %
01.02.2017 07:30 0,9 C 1,1 C -1,1 C 91 % 0 lf 1015,6 hPa 0,0 l/m 0 min 0 min 5 W/m 16,7 km/h (3 Bft) 97,87 %
01.02.2017 07:32 0,9 C 1,1 C -1,1 C 91 % 0 lf 1015,6 hPa 0,0 l/m 0 min 0 min 5 W/m 16,7 km/h (3 Bft) 97,87 %
01.02.2017 07:34 0,9 C 1,1 C -1,1 C 91 % 0 lf 1015,7 hPa 0,0 l/m 0 min 0 min 5 W/m 18,8 km/h (3 Bft) 100,00 %
01.02.2017 07:36 0,9 C 1,1 C -1,1 C 91 % 0 lf 1015,8 hPa 0,0 l/m 0 min 0 min 5 W/m 29,3 km/h (5 Bft) 100,00 %
01.02.2017 07:38 0,9 C 1,1 C -1,1 C 91 % 0 lf 1015,7 hPa 0,0 l/m 0 min 0 min 5 W/m 16,7 km/h (3 Bft) 100,00 %
01.02.2017 07:40 0,8 C 1,1 C -1,1 C 91 % 0 lf 1015,7 hPa 0,0 l/m 0 min 0 min 5 W/m 18,8 km/h (3 Bft) 100,00 %
01.02.2017 07:42 0,8 C 1,1 C -1,1 C 91 % 0 lf 1015,7 hPa 0,0 l/m 0 min 0 min 5 W/m 16,7 km/h (3 Bft) 95,74 %
01.02.2017 07:44 0,8 C 1,1 C -1,1 C 91 % 0 lf 1015,7 hPa 0,0 l/m 0 min 0 min 5 W/m 14,6 km/h (3 Bft) 100,00 %
01.02.2017 07:46 0,8 C 1,1 C -1,1 C 91 % 0 lf 1015,6 hPa 0,0 l/m 0 min 0 min 5 W/m 20,9 km/h (4 Bft) 97,87 %
01.02.2017 07:48 0,8 C 1,1 C -1,1 C 91 % 0 lf 1015,6 hPa 0,0 l/m 0 min 0 min 5 W/m 20,9 km/h (4 Bft) 98,15 %
01.02.2017 07:50 0,8 C 1,1 C -1,1 C 91 % 0 lf 1015,6 hPa 0,0 l/m 0 min 0 min 5 W/m 16,7 km/h (3 Bft) 96,00 %
01.02.2017 07:52 0,8 C 1,1 C -1,1 C 91 % 0 lf 1015,6 hPa 0,0 l/m 0 min 0 min 5 W/m 20,9 km/h (4 Bft) 100,00 %
01.02.2017 07:54 0,8 C 1,1 C -1,1 C 91 % 0 lf 1015,6 hPa 0,0 l/m 0 min 0 min 0 W/m 25,1 km/h (4 Bft) 94,59 %
01.02.2017 07:56 0,8 C 1,1 C -1,1 C 91 % 0 lf 1015,6 hPa 0,0 l/m 0 min 0 min 0 W/m 20,9 km/h (4 Bft) 97,87 %
01.02.2017 07:58 0,8 C 1,1 C -0,6 C 91 % 0 lf 1015,6 hPa 0,0 l/m 0 min 0 min 11 W/m 18,8 km/h (3 Bft) 97,87 %
01.02.2017 08:00 0,8 C 1,1 C -0,6 C 91 % 0 lf 1015,6 hPa 0,0 l/m 0 min 0 min 11 W/m 25,1 km/h (4 Bft) 98,04 %
01.02.2017 08:02 0,8 C 1,1 C -1,1 C 91 % 0 lf 1015,5 hPa 0,0 l/m 0 min 0 min 12 W/m 18,8 km/h (3 Bft) 98,00 %
01.02.2017 08:04 0,8 C 1,1 C -1,1 C 91 % 0 lf 1015,5 hPa 0,0 l/m 0 min 0 min 13 W/m 25,1 km/h (4 Bft) 95,12 %
01.02.2017 08:06 0,8 C 1,1 C -1,1 C 91 % 0 lf 1015,6 hPa 0,0 l/m 0 min 0 min 14 W/m 16,7 km/h (3 Bft) 97,87 %
01.02.2017 08:08 0,8 C 1,1 C -0,6 C 91 % 0 lf 1015,6 hPa 0,0 l/m 0 min 0 min 15 W/m 25,1 km/h (4 Bft) 98,18 %
01.02.2017 08:10 0,8 C 1,1 C -0,6 C 91 % 0 lf 1015,7 hPa 0,0 l/m 0 min 0 min 16 W/m 16,7 km/h (3 Bft) 93,62 %
01.02.2017 08:12 0,9 C 1,1 C -0,6 C 91 % 0 lf 1015,7 hPa 0,0 l/m 0 min 0 min 16 W/m 20,9 km/h (4 Bft) 100,00 %
01.02.2017 08:14 0,8 C 1,1 C -0,6 C 91 % 0 lf 1015,8 hPa 0,0 l/m 0 min 0 min 17 W/m 23,0 km/h (4 Bft) 91,49 %
01.02.2017 08:16 0,9 C 1,7 C -0,6 C 92 % 0 lf 1015,8 hPa 0,0 l/m 0 min 0 min 18 W/m 20,9 km/h (4 Bft) 95,65 %
01.02.2017 08:18 0,9 C 1,1 C -0,6 C 92 % 0 lf 1015,8 hPa 0,0 l/m 0 min 0 min 18 W/m 16,7 km/h (3 Bft) 89,36 %
01.02.2017 08:20 0,9 C 1,7 C -0,6 C 92 % 0 lf 1015,7 hPa 0,0 l/m 0 min 0 min 18 W/m 29,3 km/h (5 Bft) 95,83 %
01.02.2017 08:22 0,9 C 1,1 C -0,6 C 92 % 0 lf 1015,7 hPa 0,0 l/m 0 min 0 min 19 W/m 27,2 km/h (4 Bft) 95,74 %
01.02.2017 08:24 0,9 C 1,7 C -0,6 C 92 % 0 lf 1015,7 hPa 0,0 l/m 2 min 0 min 21 W/m 27,2 km/h (4 Bft) 95,74 %
01.02.2017 08:26 0,9 C 1,1 C -0,6 C 92 % 0 lf 1015,7 hPa 0,0 l/m 2 min 0 min 23 W/m 27,2 km/h (4 Bft) 93,48 %
01.02.2017 08:28 0,9 C 1,7 C -0,6 C 92 % 0 lf 1015,7 hPa 0,0 l/m 2 min 0 min 25 W/m 20,9 km/h (4 Bft) 90,91 %
01.02.2017 08:30 1,0 C 1,7 C -0,6 C 92 % 0 lf 1015,7 hPa 0,0 l/m 2 min 0 min 29 W/m 25,1 km/h (4 Bft) 93,62 %
01.02.2017 08:32 1,0 C 1,7 C -0,6 C 92 % 0 lf 1015,6 hPa 0,0 l/m 2 min 0 min 32 W/m 20,9 km/h (4 Bft) 93,62 %
01.02.2017 08:34 1,0 C 1,7 C -0,6 C 92 % 0 lf 1015,8 hPa 0,0 l/m 2 min 0 min 34 W/m 25,1 km/h (4 Bft) 95,74 %
01.02.2017 08:36 1,0 C 1,7 C -0,6 C 92 % 0 lf 1015,7 hPa 0,0 l/m 2 min 0 min 37 W/m 27,2 km/h (4 Bft) 94,74 %
01.02.2017 08:38 1,0 C 1,7 C -0,6 C 92 % 0 lf 1015,7 hPa 0,0 l/m 2 min 0 min 39 W/m 25,1 km/h (4 Bft) 91,49 %
01.02.2017 08:40 1,1 C 1,7 C -0,6 C 92 % 0 lf 1015,7 hPa 0,0 l/m 2 min 0 min 41 W/m 23,0 km/h (4 Bft) 93,62 %
01.02.2017 08:42 1,1 C 1,7 C -0,6 C 92 % 0 lf 1015,7 hPa 0,0 l/m 2 min 0 min 44 W/m 20,9 km/h (4 Bft) 97,87 %
01.02.2017 08:44 1,1 C 1,7 C 0,0 C 91 % 0 lf 1015,7 hPa 0,0 l/m 2 min 0 min 46 W/m 25,1 km/h (4 Bft) 95,74 %
01.02.2017 08:46 1,1 C 1,7 C 0,0 C 91 % 0 lf 1015,7 hPa 0,0 l/m 2 min 0 min 46 W/m 23,0 km/h (4 Bft) 92,73 %
01.02.2017 08:48 1,1 C 1,7 C 0,0 C 91 % 0 lf 1015,7 hPa 0,0 l/m 2 min 0 min 47 W/m 25,1 km/h (4 Bft) 100,00 %
01.02.2017 08:50 1,1 C 1,7 C 0,0 C 91 % 0 lf 1015,7 hPa 0,0 l/m 2 min 0 min 47 W/m 27,2 km/h (4 Bft) 93,62 %
01.02.2017 08:52 1,1 C 1,7 C 0,0 C 91 % 0 lf 1015,8 hPa 0,0 l/m 2 min 0 min 45 W/m 18,8 km/h (3 Bft) 93,62 %
01.02.2017 08:54 1,1 C 1,7 C 0,0 C 91 % 0 lf 1015,7 hPa 0,0 l/m 2 min 0 min 47 W/m 33,5 km/h (5 Bft) 94,55 %
01.02.2017 08:56 1,1 C 1,7 C 0,0 C 91 % 0 lf 1015,7 hPa 0,0 l/m 2 min 0 min 56 W/m 29,3 km/h (5 Bft) 94,74 %
01.02.2017 08:58 1,2 C 1,7 C 0,0 C 91 % 0 lf 1015,7 hPa 0,0 l/m 2 min 0 min 62 W/m 23,0 km/h (4 Bft) 93,62 %
01.02.2017 09:00 1,2 C 1,7 C 0,0 C 91 % 0 lf 1015,8 hPa 0,0 l/m 2 min 0 min 64 W/m 27,2 km/h (4 Bft) 94,00 %
01.02.2017 09:02 1,2 C 2,2 C 0,0 C 91 % 0 lf 1015,7 hPa 0,0 l/m 2 min 0 min 63 W/m 23,0 km/h (4 Bft) 93,88 %
01.02.2017 09:04 1,2 C 2,2 C 0,0 C 91 % 0 lf 1015,7 hPa 0,0 l/m 2 min 0 min 61 W/m 31,4 km/h (5 Bft) 88,00 %
01.02.2017 09:06 1,2 C 2,2 C 0,0 C 91 % 0 lf 1015,8 hPa 0,0 l/m 2 min 0 min 73 W/m 31,4 km/h (5 Bft) 94,44 %
01.02.2017 09:08 1,2 C 2,2 C 0,0 C 91 % 0 lf 1015,7 hPa 0,0 l/m 2 min 0 min 74 W/m 31,4 km/h (5 Bft) 93,62 %
01.02.2017 09:10 1,2 C 2,2 C 0,0 C 91 % 0 lf 1015,8 hPa 0,0 l/m 2 min 0 min 83 W/m 27,2 km/h (4 Bft) 93,62 %
01.02.2017 09:12 1,3 C 2,2 C 0,0 C 91 % 0 lf 1015,8 hPa 0,0 l/m 2 min 0 min 84 W/m 35,6 km/h (5 Bft) 93,62 %
01.02.2017 09:14 1,3 C 2,2 C 0,0 C 91 % 0 lf 1015,8 hPa 0,0 l/m 2 min 0 min 82 W/m 29,3 km/h (5 Bft) 93,48 %
01.02.2017 09:16 1,3 C 2,2 C 0,0 C 91 % 0 lf 1015,8 hPa 0,0 l/m 2 min 0 min 80 W/m 27,2 km/h (4 Bft) 95,74 %
01.02.2017 09:18 1,3 C 2,2 C 0,0 C 91 % 0 lf 1015,8 hPa 0,0 l/m 2 min 0 min 86 W/m 25,1 km/h (4 Bft) 94,55 %
01.02.2017 09:20 1,3 C 2,2 C 0,0 C 91 % 0 lf 1015,9 hPa 0,0 l/m 2 min 0 min 84 W/m 20,9 km/h (4 Bft) 92,00 %
01.02.2017 09:22 1,3 C 2,2 C 0,0 C 91 % 0 lf 1015,9 hPa 0,0 l/m 2 min 0 min 93 W/m 27,2 km/h (4 Bft) 93,62 %
01.02.2017 09:24 1,4 C 2,2 C 0,0 C 91 % 0 lf 1015,9 hPa 0,0 l/m 2 min 0 min 85 W/m 29,3 km/h (5 Bft) 100,00 %
01.02.2017 09:26 1,4 C 2,2 C 0,0 C 91 % 0 lf 1015,9 hPa 0,0 l/m 2 min 0 min 90 W/m 27,2 km/h (4 Bft) 95,65 %
01.02.2017 09:28 1,4 C 2,2 C 0,0 C 91 % 0 lf 1015,9 hPa 0,0 l/m 0 min 0 min 77 W/m 31,4 km/h (5 Bft) 97,87 %
01.02.2017 09:30 1,4 C 2,2 C 0,0 C 91 % 0 lf 1015,9 hPa 0,0 l/m 2 min 0 min 105 W/m 20,9 km/h (4 Bft) 94,55 %
01.02.2017 09:32 1,4 C 2,2 C 0,0 C 91 % 0 lf 1015,9 hPa 0,0 l/m 2 min 0 min 110 W/m 29,3 km/h (5 Bft) 96,00 %
01.02.2017 09:34 1,4 C 2,2 C 0,0 C 91 % 0 lf 1015,9 hPa 0,0 l/m 2 min 0 min 117 W/m 29,3 km/h (5 Bft) 97,87 %
01.02.2017 09:36 1,4 C 2,2 C 0,6 C 90 % 0 lf 1015,8 hPa 0,0 l/m 2 min 0 min 120 W/m 29,3 km/h (5 Bft) 97,14 %
01.02.2017 09:38 1,5 C 2,2 C 0,6 C 90 % 0 lf 1015,8 hPa 0,0 l/m 2 min 0 min 123 W/m 35,6 km/h (5 Bft) 91,49 %
01.02.2017 09:40 1,5 C 2,2 C 0,6 C 90 % 0 lf 1015,8 hPa 0,0 l/m 2 min 0 min 121 W/m 31,4 km/h (5 Bft) 97,87 %
01.02.2017 09:42 1,5 C 2,2 C 0,6 C 90 % 0 lf 1015,8 hPa 0,0 l/m 2 min 0 min 123 W/m 25,1 km/h (4 Bft) 96,36 %
01.02.2017 09:44 1,6 C 2,2 C 0,6 C 90 % 0 lf 1015,7 hPa 0,0 l/m 2 min 0 min 130 W/m 29,3 km/h (5 Bft) 97,87 %
01.02.2017 09:46 1,6 C 2,8 C 0,6 C 90 % 0 lf 1015,7 hPa 0,0 l/m 2 min 0 min 134 W/m 25,1 km/h (4 Bft) 98,00 %
01.02.2017 09:48 1,6 C 2,8 C 0,6 C 90 % 0 lf 1015,6 hPa 0,0 l/m 2 min 0 min 148 W/m 29,3 km/h (5 Bft) 91,43 %
01.02.2017 09:50 1,6 C 2,8 C 0,6 C 90 % 0 lf 1015,8 hPa 0,0 l/m 2 min 0 min 147 W/m 31,4 km/h (5 Bft) 95,74 %
01.02.2017 09:52 1,6 C 2,8 C 0,6 C 90 % 0 lf 1015,7 hPa 0,0 l/m 2 min 0 min 141 W/m 27,2 km/h (4 Bft) 96,36 %
01.02.2017 09:54 1,7 C 2,8 C 0,6 C 90 % 0 lf 1015,6 hPa 0,0 l/m 2 min 0 min 141 W/m 29,3 km/h (5 Bft) 94,00 %
01.02.2017 09:56 1,7 C 3,3 C 0,6 C 90 % 0 lf 1015,7 hPa 0,0 l/m 2 min 0 min 149 W/m 33,5 km/h (5 Bft) 97,87 %
01.02.2017 09:58 1,7 C 3,3 C 0,6 C 90 % 0 lf 1015,6 hPa 0,0 l/m 2 min 0 min 164 W/m 35,6 km/h (5 Bft) 95,74 %
01.02.2017 10:00 1,8 C 3,9 C 0,6 C 89 % 0 lf 1015,6 hPa 0,0 l/m 2 min 0 min 176 W/m 20,9 km/h (4 Bft) 100,00 %
01.02.2017 10:02 1,8 C 3,3 C 0,6 C 90 % 0 lf 1015,5 hPa 0,0 l/m 2 min 0 min 178 W/m 23,0 km/h (4 Bft) 97,96 %
01.02.2017 10:04 1,9 C 3,9 C 0,6 C 89 % 0 lf 1015,6 hPa 0,0 l/m 2 min 0 min 184 W/m 35,6 km/h (5 Bft) 100,00 %
01.02.2017 10:06 1,9 C 3,9 C 0,6 C 89 % 0 lf 1015,6 hPa 0,0 l/m 2 min 0 min 191 W/m 29,3 km/h (5 Bft) 97,87 %
01.02.2017 10:08 1,9 C 3,9 C 0,6 C 89 % 0 lf 1015,6 hPa 0,0 l/m 2 min 0 min 191 W/m 27,2 km/h (4 Bft) 100,00 %
01.02.2017 10:10 2,0 C 3,9 C 0,6 C 89 % 0 lf 1015,6 hPa 0,0 l/m 2 min 0 min 200 W/m 20,9 km/h (4 Bft) 91,49 %
01.02.2017 10:12 2,0 C 3,9 C 1,1 C 89 % 0 lf 1015,5 hPa 0,0 l/m 2 min 0 min 194 W/m 33,5 km/h (5 Bft) 100,00 %
01.02.2017 10:14 2,1 C 3,9 C 1,1 C 89 % 0 lf 1015,4 hPa 0,0 l/m 2 min 0 min 199 W/m 33,5 km/h (5 Bft) 98,18 %
01.02.2017 10:16 2,1 C 3,9 C 1,1 C 89 % 0 lf 1015,5 hPa 0,0 l/m 2 min 0 min 208 W/m 27,2 km/h (4 Bft) 100,00 %
01.02.2017 10:18 2,2 C 4,4 C 1,1 C 89 % 0 lf 1015,5 hPa 0,0 l/m 2 min 0 min 213 W/m 33,5 km/h (5 Bft) 95,74 %
01.02.2017 10:20 2,2 C 4,4 C 1,1 C 89 % 0 lf 1015,5 hPa 0,0 l/m 2 min 0 min 216 W/m 33,5 km/h (5 Bft) 97,87 %
01.02.2017 10:22 2,2 C 5,0 C 1,1 C 88 % 0 lf 1015,5 hPa 0,0 l/m 2 min 0 min 227 W/m 33,5 km/h (5 Bft) 100,00 %
01.02.2017 10:24 2,3 C 5,0 C 1,1 C 88 % 0 lf 1015,5 hPa 0,0 l/m 2 min 0 min 224 W/m 27,2 km/h (4 Bft) 100,00 %
01.02.2017 10:26 2,3 C 5,0 C 1,1 C 88 % 0 lf 1015,5 hPa 0,0 l/m 2 min 0 min 226 W/m 23,0 km/h (4 Bft) 100,00 %
01.02.2017 10:28 2,3 C 6,1 C 1,1 C 88 % 0 lf 1015,5 hPa 0,0 l/m 2 min 0 min 228 W/m 20,9 km/h (4 Bft) 94,55 %
01.02.2017 10:30 2,4 C 6,1 C 1,1 C 88 % 0 lf 1015,5 hPa 0,0 l/m 2 min 0 min 233 W/m 25,1 km/h (4 Bft) 100,00 %
01.02.2017 10:32 2,4 C 5,6 C 1,1 C 88 % 0 lf 1015,5 hPa 0,0 l/m 2 min 0 min 231 W/m 27,2 km/h (4 Bft) 97,87 %
01.02.2017 10:34 2,5 C 5,6 C 1,1 C 88 % 0 lf 1015,5 hPa 0,0 l/m 2 min 0 min 236 W/m 33,5 km/h (5 Bft) 95,74 %
01.02.2017 10:36 2,5 C 5,6 C 1,1 C 87 % 0 lf 1015,5 hPa 0,0 l/m 2 min 0 min 240 W/m 33,5 km/h (5 Bft) 94,29 %
01.02.2017 10:38 2,6 C 5,6 C 1,1 C 87 % 0 lf 1015,5 hPa 0,0 l/m 2 min 0 min 257 W/m 31,4 km/h (5 Bft) 100,00 %
01.02.2017 10:40 2,6 C 6,1 C 1,1 C 87 % 0 lf 1015,4 hPa 0,0 l/m 2 min 0 min 253 W/m 27,2 km/h (4 Bft) 96,36 %
01.02.2017 10:42 2,6 C 6,1 C 1,1 C 87 % 0 lf 1015,4 hPa 0,0 l/m 2 min 0 min 258 W/m 39,7 km/h (6 Bft) 100,00 %
01.02.2017 10:44 2,7 C 6,1 C 1,1 C 87 % 0 lf 1015,5 hPa 0,0 l/m 2 min 0 min 253 W/m 25,1 km/h (4 Bft) 97,87 %
01.02.2017 10:46 2,7 C 5,6 C 1,1 C 87 % 0 lf 1015,5 hPa 0,0 l/m 2 min 0 min 257 W/m 31,4 km/h (5 Bft) 93,62 %
01.02.2017 10:48 2,7 C 5,6 C 1,7 C 87 % 0 lf 1015,4 hPa 0,0 l/m 2 min 0 min 260 W/m 37,7 km/h (5 Bft) 93,48 %
01.02.2017 10:50 2,8 C 6,1 C 1,7 C 86 % 0 lf 1015,4 hPa 0,0 l/m 2 min 0 min 267 W/m 29,3 km/h (5 Bft) 95,83 %
01.02.2017 10:53 2,8 C 6,7 C 1,7 C 86 % 0 lf 1015,4 hPa 0,0 l/m 2 min 0 min 273 W/m 27,2 km/h (4 Bft) 94,29 %
01.02.2017 10:54 2,9 C 6,7 C 1,7 C 86 % 0 lf 1015,4 hPa 0,0 l/m 1 min 0 min 280 W/m 29,3 km/h (5 Bft) 100,00 %
01.02.2017 10:58 2,9 C 6,7 C 1,7 C 86 % 0 lf 1015,3 hPa 0,0 l/m 2 min 0 min 284 W/m 29,3 km/h (5 Bft) 92,47 %
01.02.2017 10:59 3,0 C 6,7 C 1,7 C 86 % 0 lf 1015,4 hPa 0,0 l/m 1 min 0 min 288 W/m 35,6 km/h (5 Bft) 96,15 %
01.02.2017 11:00 3,0 C 6,7 C 1,7 C 86 % 0 lf 1015,4 hPa 0,0 l/m 1 min 0 min 297 W/m 27,2 km/h (4 Bft) 91,30 %
01.02.2017 11:01 3,0 C 6,1 C 1,7 C 86 % 0 lf 1015,4 hPa 0,0 l/m 1 min 0 min 290 W/m 31,4 km/h (5 Bft) 95,65 %
01.02.2017 11:02 3,0 C 6,1 C 1,7 C 86 % 0 lf 1015,4 hPa 0,0 l/m 1 min 0 min 295 W/m 29,3 km/h (5 Bft) 86,96 %
01.02.2017 11:03 3,1 C 6,1 C 1,7 C 85 % 0 lf 1015,3 hPa 0,0 l/m 1 min 0 min 292 W/m 27,2 km/h (4 Bft) 100,00 %
01.02.2017 11:04 3,1 C 6,7 C 1,7 C 85 % 0 lf 1015,3 hPa 0,0 l/m 1 min 0 min 290 W/m 20,9 km/h (4 Bft) 86,96 %
01.02.2017 11:05 3,1 C 7,2 C 1,7 C 85 % 0 lf 1015,3 hPa 0,0 l/m 1 min 0 min 294 W/m 23,0 km/h (4 Bft) 100,00 %
01.02.2017 11:06 3,1 C 7,8 C 1,7 C 85 % 0 lf 1015,3 hPa 0,0 l/m 1 min 0 min 290 W/m 27,2 km/h (4 Bft) 86,96 %
01.02.2017 11:07 3,1 C 7,8 C 1,7 C 85 % 0 lf 1015,3 hPa 0,0 l/m 1 min 0 min 294 W/m 20,9 km/h (4 Bft) 100,00 %
01.02.2017 11:08 3,2 C 7,2 C 1,7 C 85 % 0 lf 1015,4 hPa 0,0 l/m 1 min 0 min 294 W/m 31,4 km/h (5 Bft) 91,30 %
01.02.2017 11:09 3,2 C 7,2 C 1,7 C 85 % 0 lf 1015,3 hPa 0,0 l/m 1 min 0 min 294 W/m 33,5 km/h (5 Bft) 95,65 %
01.02.2017 11:10 3,2 C 7,2 C 1,7 C 85 % 0 lf 1015,3 hPa 0,0 l/m 1 min 0 min 294 W/m 23,0 km/h (4 Bft) 91,30 %
01.02.2017 11:11 3,2 C 6,7 C 1,7 C 85 % 0 lf 1015,3 hPa 0,0 l/m 1 min 0 min 290 W/m 33,5 km/h (5 Bft) 91,30 %
01.02.2017 11:12 3,2 C 7,2 C 1,7 C 85 % 0 lf 1015,3 hPa 0,0 l/m 1 min 0 min 294 W/m 23,0 km/h (4 Bft) 100,00 %
01.02.2017 11:13 3,2 C 7,8 C 1,7 C 85 % 0 lf 1015,3 hPa 0,0 l/m 1 min 0 min 285 W/m 35,6 km/h (5 Bft) 91,30 %
01.02.2017 11:14 3,2 C 7,2 C 1,7 C 85 % 0 lf 1015,3 hPa 0,0 l/m 1 min 0 min 285 W/m 29,3 km/h (5 Bft) 91,30 %
01.02.2017 11:15 3,2 C 7,8 C 1,7 C 85 % 0 lf 1015,4 hPa 0,0 l/m 1 min 0 min 285 W/m 27,2 km/h (4 Bft) 95,65 %
01.02.2017 11:16 3,3 C 7,8 C 1,7 C 85 % 0 lf 1015,3 hPa 0,0 l/m 1 min 0 min 286 W/m 33,5 km/h (5 Bft) 95,65 %
01.02.2017 11:17 3,3 C 7,2 C 1,7 C 85 % 0 lf 1015,3 hPa 0,0 l/m 1 min 0 min 287 W/m 23,0 km/h (4 Bft) 95,65 %
01.02.2017 11:18 3,3 C 7,8 C 1,7 C 85 % 0 lf 1015,3 hPa 0,0 l/m 1 min 0 min 287 W/m 33,5 km/h (5 Bft) 91,30 %
01.02.2017 11:19 3,3 C 7,8 C 1,7 C 85 % 0 lf 1015,2 hPa 0,0 l/m 1 min 0 min 294 W/m 27,2 km/h (4 Bft) 91,30 %
01.02.2017 11:20 3,3 C 7,2 C 1,7 C 85 % 0 lf 1015,2 hPa 0,0 l/m 1 min 0 min 288 W/m 27,2 km/h (4 Bft) 95,65 %
01.02.2017 11:21 3,4 C 7,2 C 1,7 C 85 % 0 lf 1015,2 hPa 0,0 l/m 1 min 0 min 294 W/m 37,7 km/h (5 Bft) 91,30 %
01.02.2017 11:22 3,4 C 6,7 C 1,7 C 85 % 0 lf 1015,2 hPa 0,0 l/m 1 min 0 min 293 W/m 20,9 km/h (4 Bft) 95,65 %
01.02.2017 11:23 3,4 C 6,7 C 1,7 C 84 % 0 lf 1015,2 hPa 0,0 l/m 1 min 0 min 302 W/m 31,4 km/h (5 Bft) 95,65 %
01.02.2017 11:24 3,4 C 7,2 C 1,7 C 84 % 0 lf 1015,2 hPa 0,0 l/m 1 min 0 min 311 W/m 41,8 km/h (6 Bft) 95,65 %
01.02.2017 11:25 3,4 C 7,2 C 1,7 C 84 % 0 lf 1015,2 hPa 0,0 l/m 1 min 0 min 309 W/m 33,5 km/h (5 Bft) 91,30 %
01.02.2017 11:26 3,4 C 6,7 C 1,7 C 84 % 0 lf 1015,2 hPa 0,0 l/m 1 min 0 min 301 W/m 27,2 km/h (4 Bft) 91,30 %
01.02.2017 11:27 3,4 C 6,7 C 1,7 C 84 % 0 lf 1015,2 hPa 0,0 l/m 1 min 0 min 299 W/m 37,7 km/h (5 Bft) 100,00 %
01.02.2017 11:28 3,4 C 7,2 C 2,2 C 84 % 0 lf 1015,2 hPa 0,0 l/m 1 min 0 min 297 W/m 23,0 km/h (4 Bft) 86,96 %
01.02.2017 11:29 3,4 C 7,2 C 2,2 C 84 % 0 lf 1015,1 hPa 0,0 l/m 1 min 0 min 302 W/m 46,0 km/h (6 Bft) 100,00 %
01.02.2017 11:30 3,4 C 6,7 C 2,2 C 84 % 0 lf 1015,1 hPa 0,0 l/m 1 min 0 min 295 W/m 46,0 km/h (6 Bft) 91,30 %
01.02.2017 11:31 3,4 C 6,7 C 2,2 C 84 % 0 lf 1015,1 hPa 0,0 l/m 1 min 0 min 299 W/m 27,2 km/h (4 Bft) 91,30 %
01.02.2017 11:32 3,4 C 6,7 C 1,7 C 84 % 0 lf 1015,1 hPa 0,0 l/m 1 min 0 min 294 W/m 33,5 km/h (5 Bft) 100,00 %
01.02.2017 11:33 3,4 C 7,2 C 2,2 C 84 % 0 lf 1015,1 hPa 0,0 l/m 1 min 0 min 295 W/m 37,7 km/h (5 Bft) 86,96 %
01.02.2017 11:34 3,4 C 6,7 C 2,2 C 84 % 0 lf 1015,1 hPa 0,0 l/m 1 min 0 min 292 W/m 33,5 km/h (5 Bft) 86,96 %
01.02.2017 11:35 3,4 C 6,7 C 2,2 C 83 % 0 lf 1015,0 hPa 0,0 l/m 1 min 0 min 301 W/m 31,4 km/h (5 Bft) 91,30 %
01.02.2017 11:36 3,4 C 6,1 C 2,2 C 83 % 0 lf 1015,0 hPa 0,0 l/m 1 min 0 min 311 W/m 29,3 km/h (5 Bft) 100,00 %
01.02.2017 11:37 3,4 C 6,7 C 2,2 C 84 % 0 lf 1015,0 hPa 0,0 l/m 1 min 0 min 306 W/m 27,2 km/h (4 Bft) 91,30 %
01.02.2017 11:38 3,4 C 6,7 C 2,2 C 84 % 0 lf 1014,9 hPa 0,0 l/m 1 min 0 min 309 W/m 31,4 km/h (5 Bft) 95,65 %
01.02.2017 11:39 3,5 C 6,7 C 2,2 C 84 % 0 lf 1015,1 hPa 0,0 l/m 1 min 0 min 309 W/m 20,9 km/h (4 Bft) 100,00 %
01.02.2017 11:40 3,5 C 7,8 C 2,2 C 83 % 0 lf 1015,0 hPa 0,0 l/m 1 min 0 min 315 W/m 33,5 km/h (5 Bft) 95,65 %
01.02.2017 11:41 3,5 C 8,3 C 2,2 C 83 % 0 lf 1015,1 hPa 0,0 l/m 1 min 0 min 322 W/m 31,4 km/h (5 Bft) 100,00 %
01.02.2017 11:42 3,5 C 8,3 C 2,2 C 84 % 0 lf 1015,0 hPa 0,0 l/m 1 min 0 min 315 W/m 27,2 km/h (4 Bft) 95,65 %
01.02.2017 11:43 3,6 C 8,3 C 2,2 C 84 % 0 lf 1015,0 hPa 0,0 l/m 1 min 0 min 304 W/m 25,1 km/h (4 Bft) 78,26 %
01.02.2017 11:44 3,6 C 8,3 C 2,2 C 84 % 0 lf 1015,0 hPa 0,0 l/m 1 min 0 min 299 W/m 23,0 km/h (4 Bft) 100,00 %
01.02.2017 11:45 3,6 C 7,8 C 2,2 C 84 % 0 lf 1014,9 hPa 0,0 l/m 1 min 0 min 292 W/m 27,2 km/h (4 Bft) 86,96 %
01.02.2017 11:48 3,7 C 8,3 C 2,2 C 84 % 0 lf 1014,9 hPa 0,0 l/m 2 min 0 min 320 W/m 23,0 km/h (4 Bft) 93,62 %
01.02.2017 11:50 3,7 C 8,9 C 2,2 C 84 % 0 lf 1014,8 hPa 0,0 l/m 2 min 0 min 330 W/m 20,9 km/h (4 Bft) 93,48 %
01.02.2017 11:52 3,8 C 8,9 C 2,8 C 84 % 0 lf 1014,9 hPa 0,0 l/m 2 min 0 min 326 W/m 27,2 km/h (4 Bft) 92,86 %
01.02.2017 11:54 3,8 C 8,3 C 2,2 C 84 % 0 lf 1014,8 hPa 0,0 l/m 2 min 0 min 316 W/m 39,7 km/h (6 Bft) 93,88 %
01.02.2017 11:56 3,8 C 8,3 C 2,2 C 83 % 0 lf 1014,7 hPa 0,0 l/m 2 min 0 min 315 W/m 35,6 km/h (5 Bft) 94,00 %
01.02.2017 11:58 3,9 C 8,9 C 2,8 C 83 % 0 lf 1014,7 hPa 0,0 l/m 2 min 0 min 314 W/m 29,3 km/h (5 Bft) 95,74 %
01.02.2017 12:00 3,9 C 7,8 C 2,8 C 84 % 0 lf 1014,7 hPa 0,0 l/m 2 min 0 min 312 W/m 35,6 km/h (5 Bft) 90,24 %
01.02.2017 12:02 4,0 C 8,3 C 2,8 C 83 % 0 lf 1014,7 hPa 0,0 l/m 2 min 0 min 324 W/m 25,1 km/h (4 Bft) 98,00 %
01.02.2017 12:04 4,1 C 8,3 C 2,8 C 83 % 0 lf 1014,7 hPa 0,0 l/m 2 min 0 min 320 W/m 29,3 km/h (5 Bft) 98,04 %
01.02.2017 12:06 4,1 C 7,8 C 2,8 C 83 % 0 lf 1014,7 hPa 0,0 l/m 2 min 0 min 318 W/m 37,7 km/h (5 Bft) 95,83 %
01.02.2017 12:08 4,1 C 7,8 C 2,8 C 83 % 0 lf 1014,7 hPa 0,0 l/m 2 min 0 min 323 W/m 31,4 km/h (5 Bft) 97,14 %
01.02.2017 12:10 4,1 C 8,3 C 2,8 C 83 % 0 lf 1014,7 hPa 0,0 l/m 2 min 0 min 327 W/m 27,2 km/h (4 Bft) 96,30 %
01.02.2017 12:12 4,2 C 8,3 C 2,8 C 83 % 0 lf 1014,7 hPa 0,0 l/m 2 min 0 min 327 W/m 18,8 km/h (3 Bft) 96,00 %
01.02.2017 12:14 4,2 C 8,3 C 2,8 C 83 % 0 lf 1014,7 hPa 0,0 l/m 2 min 0 min 338 W/m 29,3 km/h (5 Bft) 97,92 %
01.02.2017 12:16 4,2 C 8,9 C 2,8 C 83 % 0 lf 1014,7 hPa 0,0 l/m 2 min 0 min 339 W/m 31,4 km/h (5 Bft) 94,29 %
01.02.2017 12:18 4,2 C 7,8 C 2,8 C 82 % 0 lf 1014,7 hPa 0,0 l/m 2 min 0 min 347 W/m 37,7 km/h (5 Bft) 96,30 %
01.02.2017 12:20 4,2 C 7,2 C 2,8 C 82 % 0 lf 1014,7 hPa 0,0 l/m 2 min 0 min 350 W/m 27,2 km/h (4 Bft) 98,00 %
01.02.2017 12:22 4,3 C 7,8 C 3,3 C 82 % 0 lf 1014,6 hPa 0,0 l/m 2 min 0 min 347 W/m 25,1 km/h (4 Bft) 100,00 %
01.02.2017 12:24 4,3 C 7,8 C 3,3 C 82 % 0 lf 1014,6 hPa 0,0 l/m 2 min 0 min 349 W/m 37,7 km/h (5 Bft) 97,92 %
01.02.2017 12:26 4,3 C 7,8 C 3,3 C 82 % 0 lf 1014,6 hPa 0,0 l/m 2 min 0 min 359 W/m 29,3 km/h (5 Bft) 97,22 %
01.02.2017 12:28 4,4 C 7,8 C 3,3 C 82 % 0 lf 1014,5 hPa 0,0 l/m 2 min 0 min 357 W/m 31,4 km/h (5 Bft) 98,15 %
01.02.2017 12:30 4,4 C 7,8 C 3,3 C 82 % 0 lf 1014,5 hPa 0,0 l/m 2 min 0 min 377 W/m 39,7 km/h (6 Bft) 100,00 %
01.02.2017 12:32 4,4 C 6,7 C 2,8 C 82 % 0 lf 1014,4 hPa 0,0 l/m 2 min 0 min 273 W/m 31,4 km/h (5 Bft) 95,92 %
01.02.2017 12:34 4,3 C 6,7 C 2,8 C 82 % 0 lf 1014,4 hPa 0,0 l/m 0 min 0 min 183 W/m 29,3 km/h (5 Bft) 100,00 %
01.02.2017 12:36 4,3 C 7,2 C 3,3 C 82 % 0 lf 1014,4 hPa 0,0 l/m 2 min 0 min 342 W/m 37,7 km/h (5 Bft) 98,15 %
01.02.2017 12:38 4,3 C 7,8 C 3,3 C 82 % 0 lf 1014,4 hPa 0,0 l/m 2 min 0 min 406 W/m 39,7 km/h (6 Bft) 98,00 %
01.02.2017 12:40 4,3 C 7,8 C 3,3 C 82 % 0 lf 1014,4 hPa 0,0 l/m 2 min 0 min 422 W/m 33,5 km/h (5 Bft) 100,00 %
01.02.2017 12:42 4,3 C 7,2 C 3,3 C 81 % 0 lf 1014,3 hPa 0,0 l/m 2 min 0 min 413 W/m 35,6 km/h (5 Bft) 97,14 %
01.02.2017 12:44 4,4 C 7,8 C 3,9 C 81 % 0 lf 1014,3 hPa 0,0 l/m 2 min 0 min 383 W/m 33,5 km/h (5 Bft) 100,00 %
01.02.2017 12:46 4,4 C 8,3 C 3,9 C 81 % 0 lf 1014,2 hPa 0,0 l/m 2 min 0 min 408 W/m 29,3 km/h (5 Bft) 98,00 %
01.02.2017 12:48 4,4 C 8,3 C 3,9 C 81 % 0 lf 1014,2 hPa 0,0 l/m 2 min 0 min 423 W/m 31,4 km/h (5 Bft) 100,00 %
01.02.2017 12:50 4,5 C 7,2 C 3,9 C 81 % 0 lf 1014,1 hPa 0,0 l/m 2 min 0 min 365 W/m 29,3 km/h (5 Bft) 100,00 %
01.02.2017 12:52 4,5 C 7,2 C 4,4 C 81 % 0 lf 1014,2 hPa 0,0 l/m 2 min 0 min 291 W/m 31,4 km/h (5 Bft) 97,87 %
01.02.2017 12:54 4,6 C 6,7 C 3,9 C 81 % 0 lf 1014,2 hPa 0,0 l/m 2 min 0 min 254 W/m 29,3 km/h (5 Bft) 96,30 %
01.02.2017 12:56 4,5 C 6,1 C 3,9 C 81 % 0 lf 1014,1 hPa 0,0 l/m 2 min 0 min 234 W/m 27,2 km/h (4 Bft) 100,00 %
01.02.2017 12:58 4,5 C 6,1 C 3,9 C 81 % 0 lf 1014,2 hPa 0,0 l/m 2 min 0 min 224 W/m 25,1 km/h (4 Bft) 95,92 %
01.02.2017 13:00 4,5 C 5,6 C 3,9 C 81 % 0 lf 1014,1 hPa 0,0 l/m 2 min 0 min 218 W/m 35,6 km/h (5 Bft) 97,14 %
01.02.2017 13:02 4,4 C 5,6 C 3,9 C 81 % 0 lf 1014,1 hPa 0,0 l/m 2 min 0 min 211 W/m 29,3 km/h (5 Bft) 98,15 %
01.02.2017 13:04 4,4 C 6,1 C 3,9 C 81 % 0 lf 1014,1 hPa 0,0 l/m 2 min 0 min 204 W/m 35,6 km/h (5 Bft) 97,96 %
01.02.2017 13:06 4,4 C 5,6 C 3,9 C 81 % 0 lf 1014,1 hPa 0,0 l/m 2 min 0 min 200 W/m 33,5 km/h (5 Bft) 100,00 %
01.02.2017 13:08 4,4 C 5,6 C 3,9 C 81 % 0 lf 1014,1 hPa 0,0 l/m 2 min 0 min 196 W/m 16,7 km/h (3 Bft) 100,00 %
01.02.2017 13:10 4,4 C 5,6 C 4,4 C 81 % 0 lf 1014,0 hPa 0,0 l/m 2 min 0 min 194 W/m 33,5 km/h (5 Bft) 98,15 %
01.02.2017 13:12 4,3 C 5,0 C 3,9 C 81 % 0 lf 1014,0 hPa 0,0 l/m 2 min 0 min 192 W/m 29,3 km/h (5 Bft) 98,00 %
01.02.2017 13:14 4,3 C 5,0 C 3,9 C 81 % 0 lf 1014,0 hPa 0,0 l/m 2 min 0 min 189 W/m 25,1 km/h (4 Bft) 97,92 %
01.02.2017 13:16 4,2 C 5,0 C 3,9 C 81 % 0 lf 1014,0 hPa 0,0 l/m 0 min 0 min 183 W/m 25,1 km/h (4 Bft) 100,00 %
01.02.2017 13:18 4,2 C 5,0 C 3,9 C 81 % 0 lf 1014,0 hPa 0,0 l/m 0 min 0 min 179 W/m 31,4 km/h (5 Bft) 92,59 %
01.02.2017 13:20 4,2 C 5,0 C 3,9 C 81 % 0 lf 1014,0 hPa 0,0 l/m 0 min 0 min 175 W/m 35,6 km/h (5 Bft) 100,00 %
01.02.2017 13:22 4,2 C 5,0 C 3,9 C 81 % 0 lf 1014,0 hPa 0,0 l/m 0 min 0 min 173 W/m 33,5 km/h (5 Bft) 97,87 %
01.02.2017 13:24 4,2 C 5,0 C 3,9 C 81 % 0 lf 1013,9 hPa 0,0 l/m 0 min 0 min 171 W/m 33,5 km/h (5 Bft) 100,00 %
01.02.2017 13:26 4,1 C 5,0 C 3,9 C 82 % 0 lf 1014,0 hPa 0,0 l/m 0 min 0 min 169 W/m 27,2 km/h (4 Bft) 94,29 %
01.02.2017 13:28 4,1 C 5,0 C 3,9 C 82 % 0 lf 1013,9 hPa 0,0 l/m 0 min 0 min 171 W/m 27,2 km/h (4 Bft) 100,00 %
01.02.2017 13:30 4,1 C 5,0 C 3,9 C 82 % 0 lf 1013,9 hPa 0,0 l/m 0 min 0 min 177 W/m 23,0 km/h (4 Bft) 96,00 %
01.02.2017 13:32 4,1 C 5,6 C 3,9 C 82 % 0 lf 1013,9 hPa 0,0 l/m 2 min 0 min 184 W/m 29,3 km/h (5 Bft) 93,88 %
01.02.2017 13:34 4,1 C 5,6 C 3,9 C 82 % 0 lf 1013,9 hPa 0,0 l/m 2 min 0 min 195 W/m 27,2 km/h (4 Bft) 94,29 %
01.02.2017 13:36 4,1 C 5,0 C 3,9 C 82 % 0 lf 1013,8 hPa 0,0 l/m 2 min 0 min 194 W/m 27,2 km/h (4 Bft) 98,15 %
01.02.2017 13:38 4,1 C 5,6 C 3,9 C 82 % 0 lf 1013,8 hPa 0,0 l/m 2 min 0 min 196 W/m 25,1 km/h (4 Bft) 97,96 %
01.02.2017 13:40 4,1 C 5,6 C 3,9 C 82 % 0 lf 1013,7 hPa 0,0 l/m 2 min 0 min 199 W/m 39,7 km/h (6 Bft) 95,92 %
01.02.2017 13:42 4,1 C 5,6 C 3,9 C 82 % 0 lf 1013,7 hPa 0,0 l/m 2 min 0 min 195 W/m 25,1 km/h (4 Bft) 97,14 %
01.02.2017 13:44 4,1 C 5,6 C 3,9 C 82 % 0 lf 1013,6 hPa 0,0 l/m 2 min 0 min 197 W/m 27,2 km/h (4 Bft) 96,30 %
01.02.2017 13:46 4,1 C 5,0 C 3,9 C 82 % 0 lf 1013,6 hPa 0,0 l/m 2 min 0 min 203 W/m 35,6 km/h (5 Bft) 96,00 %
01.02.2017 13:48 4,1 C 5,6 C 3,9 C 82 % 0 lf 1013,5 hPa 0,0 l/m 2 min 0 min 208 W/m 25,1 km/h (4 Bft) 97,92 %
01.02.2017 13:50 4,1 C 5,6 C 4,4 C 82 % 0 lf 1013,4 hPa 0,0 l/m 2 min 0 min 201 W/m 18,8 km/h (3 Bft) 97,14 %
01.02.2017 13:52 4,1 C 5,6 C 4,4 C 82 % 0 lf 1013,4 hPa 0,0 l/m 2 min 0 min 199 W/m 23,0 km/h (4 Bft) 97,87 %
01.02.2017 13:54 4,2 C 5,6 C 4,4 C 83 % 0 lf 1013,4 hPa 0,0 l/m 2 min 0 min 182 W/m 25,1 km/h (4 Bft) 96,30 %
01.02.2017 13:56 4,2 C 5,6 C 4,4 C 83 % 0 lf 1013,4 hPa 0,0 l/m 0 min 0 min 168 W/m 29,3 km/h (5 Bft) 96,00 %
01.02.2017 13:58 4,2 C 5,6 C 4,4 C 82 % 0 lf 1013,4 hPa 0,0 l/m 0 min 0 min 159 W/m 20,9 km/h (4 Bft) 93,75 %
01.02.2017 14:00 4,2 C 5,0 C 3,9 C 82 % 0 lf 1013,3 hPa 0,0 l/m 0 min 0 min 154 W/m 29,3 km/h (5 Bft) 97,14 %
01.02.2017 14:02 4,2 C 5,0 C 3,9 C 82 % 0 lf 1013,3 hPa 0,0 l/m 0 min 0 min 150 W/m 33,5 km/h (5 Bft) 92,73 %
01.02.2017 14:04 4,2 C 5,0 C 3,9 C 82 % 0 lf 1013,2 hPa 0,0 l/m 0 min 0 min 147 W/m 25,1 km/h (4 Bft) 91,84 %
01.02.2017 14:06 4,2 C 5,0 C 3,9 C 82 % 0 lf 1013,2 hPa 0,0 l/m 0 min 0 min 145 W/m 27,2 km/h (4 Bft) 98,00 %
01.02.2017 14:08 4,2 C 5,0 C 3,9 C 82 % 0 lf 1013,2 hPa 0,0 l/m 0 min 0 min 144 W/m 33,5 km/h (5 Bft) 91,89 %
01.02.2017 14:10 4,2 C 5,0 C 3,9 C 82 % 0 lf 1013,2 hPa 0,0 l/m 0 min 0 min 144 W/m 20,9 km/h (4 Bft) 93,62 %
01.02.2017 14:12 4,2 C 5,0 C 3,9 C 82 % 0 lf 1013,2 hPa 0,0 l/m 0 min 0 min 144 W/m 25,1 km/h (4 Bft) 96,30 %
01.02.2017 14:14 4,2 C 5,0 C 3,9 C 82 % 0 lf 1013,1 hPa 0,0 l/m 0 min 0 min 142 W/m 25,1 km/h (4 Bft) 91,84 %
01.02.2017 14:16 4,2 C 5,0 C 3,9 C 82 % 0 lf 1013,1 hPa 0,0 l/m 0 min 0 min 142 W/m 29,3 km/h (5 Bft) 97,30 %
01.02.2017 14:18 4,2 C 5,0 C 3,9 C 82 % 0 lf 1013,0 hPa 0,0 l/m 0 min 0 min 141 W/m 20,9 km/h (4 Bft) 91,49 %
01.02.2017 14:20 4,2 C 5,0 C 3,9 C 82 % 0 lf 1012,9 hPa 0,0 l/m 0 min 0 min 140 W/m 25,1 km/h (4 Bft) 92,59 %
01.02.2017 14:22 4,2 C 5,0 C 3,9 C 82 % 0 lf 1012,9 hPa 0,0 l/m 0 min 0 min 138 W/m 23,0 km/h (4 Bft) 93,62 %
01.02.2017 14:24 4,2 C 5,0 C 3,9 C 82 % 0 lf 1013,0 hPa 0,0 l/m 0 min 0 min 136 W/m 18,8 km/h (3 Bft) 93,88 %
01.02.2017 14:26 4,2 C 5,0 C 3,9 C 82 % 0 lf 1013,1 hPa 0,0 l/m 0 min 0 min 134 W/m 18,8 km/h (3 Bft) 81,08 %
01.02.2017 14:28 4,2 C 5,0 C 3,9 C 82 % 0 lf 1013,0 hPa 0,0 l/m 0 min 0 min 131 W/m 20,9 km/h (4 Bft) 91,49 %
01.02.2017 14:30 4,2 C 5,6 C 3,9 C 82 % 0 lf 1012,9 hPa 0,0 l/m 0 min 0 min 127 W/m 29,3 km/h (5 Bft) 90,74 %
01.02.2017 14:32 4,2 C 5,6 C 3,9 C 83 % 0 lf 1012,8 hPa 0,0 l/m 0 min 0 min 124 W/m 27,2 km/h (4 Bft) 96,00 %
01.02.2017 14:34 4,2 C 5,0 C 3,9 C 82 % 0 lf 1012,6 hPa 0,0 l/m 0 min 0 min 121 W/m 33,5 km/h (5 Bft) 91,89 %
01.02.2017 14:36 4,2 C 5,0 C 3,9 C 82 % 0 lf 1012,8 hPa 0,0 l/m 0 min 0 min 118 W/m 23,0 km/h (4 Bft) 89,13 %
01.02.2017 14:38 4,2 C 5,0 C 3,9 C 82 % 0 lf 1012,8 hPa 0,0 l/m 0 min 0 min 115 W/m 29,3 km/h (5 Bft) 94,44 %
01.02.2017 14:40 4,2 C 5,0 C 3,9 C 82 % 0 lf 1012,8 hPa 0,0 l/m 0 min 0 min 113 W/m 31,4 km/h (5 Bft) 94,00 %
01.02.2017 14:42 4,2 C 5,0 C 3,9 C 82 % 0 lf 1012,8 hPa 0,0 l/m 0 min 0 min 111 W/m 18,8 km/h (3 Bft) 86,49 %
01.02.2017 14:44 4,2 C 5,0 C 3,9 C 82 % 0 lf 1012,8 hPa 0,0 l/m 0 min 0 min 109 W/m 23,0 km/h (4 Bft) 95,74 %
01.02.2017 14:46 4,3 C 5,0 C 3,9 C 82 % 0 lf 1012,8 hPa 0,0 l/m 0 min 0 min 109 W/m 20,9 km/h (4 Bft) 90,74 %
01.02.2017 14:48 4,3 C 5,0 C 3,9 C 82 % 0 lf 1012,8 hPa 0,0 l/m 0 min 0 min 109 W/m 16,7 km/h (3 Bft) 95,92 %
01.02.2017 14:50 4,3 C 5,0 C 3,9 C 83 % 0 lf 1012,8 hPa 0,0 l/m 0 min 0 min 109 W/m 18,8 km/h (3 Bft) 97,30 %
01.02.2017 14:52 4,3 C 5,0 C 3,9 C 83 % 0 lf 1012,8 hPa 0,0 l/m 0 min 0 min 111 W/m 20,9 km/h (4 Bft) 93,62 %
01.02.2017 14:54 4,3 C 5,0 C 3,9 C 83 % 0 lf 1012,8 hPa 0,0 l/m 0 min 0 min 111 W/m 23,0 km/h (4 Bft) 94,44 %
01.02.2017 14:56 4,3 C 5,0 C 3,9 C 83 % 0 lf 1012,8 hPa 0,0 l/m 0 min 0 min 111 W/m 20,9 km/h (4 Bft) 94,00 %
01.02.2017 14:58 4,3 C 5,0 C 3,9 C 83 % 0 lf 1012,8 hPa 0,0 l/m 0 min 0 min 109 W/m 23,0 km/h (4 Bft) 94,44 %
01.02.2017 15:00 4,3 C 5,0 C 3,9 C 83 % 0 lf 1012,7 hPa 0,0 l/m 0 min 0 min 109 W/m 25,1 km/h (4 Bft) 97,87 %
01.02.2017 15:02 4,3 C 5,0 C 3,9 C 83 % 0 lf 1012,7 hPa 0,0 l/m 0 min 0 min 106 W/m 18,8 km/h (3 Bft) 96,30 %
01.02.2017 15:04 4,3 C 5,0 C 3,9 C 83 % 0 lf 1012,6 hPa 0,0 l/m 0 min 0 min 105 W/m 20,9 km/h (4 Bft) 98,00 %
01.02.2017 15:06 4,3 C 5,0 C 3,9 C 83 % 0 lf 1012,7 hPa 0,0 l/m 0 min 0 min 104 W/m 27,2 km/h (4 Bft) 97,30 %
01.02.2017 15:08 4,4 C 5,0 C 3,9 C 83 % 0 lf 1012,5 hPa 0,0 l/m 0 min 0 min 101 W/m 23,0 km/h (4 Bft) 95,74 %
01.02.2017 15:10 4,4 C 5,0 C 3,9 C 83 % 0 lf 1012,6 hPa 0,0 l/m 0 min 0 min 98 W/m 27,2 km/h (4 Bft) 98,15 %
01.02.2017 15:12 4,4 C 5,0 C 3,9 C 83 % 0 lf 1012,5 hPa 0,0 l/m 0 min 0 min 97 W/m 20,9 km/h (4 Bft) 95,92 %
01.02.2017 15:14 4,4 C 5,0 C 3,9 C 83 % 0 lf 1012,5 hPa 0,0 l/m 0 min 0 min 94 W/m 20,9 km/h (4 Bft) 94,59 %
01.02.2017 15:16 4,4 C 5,0 C 3,9 C 83 % 0 lf 1012,5 hPa 0,0 l/m 0 min 0 min 92 W/m 23,0 km/h (4 Bft) 97,87 %
01.02.2017 15:18 4,4 C 5,0 C 3,9 C 83 % 0 lf 1012,5 hPa 0,0 l/m 0 min 0 min 90 W/m 16,7 km/h (3 Bft) 94,44 %
01.02.2017 15:20 4,4 C 5,0 C 3,9 C 83 % 0 lf 1012,4 hPa 0,0 l/m 0 min 0 min 89 W/m 18,8 km/h (3 Bft) 94,00 %
01.02.2017 15:22 4,4 C 5,0 C 3,9 C 83 % 0 lf 1012,4 hPa 0,0 l/m 0 min 0 min 87 W/m 23,0 km/h (4 Bft) 95,74 %
01.02.2017 15:24 4,5 C 5,0 C 3,9 C 83 % 0 lf 1012,4 hPa 0,0 l/m 0 min 0 min 85 W/m 25,1 km/h (4 Bft) 97,22 %
01.02.2017 15:26 4,5 C 5,0 C 3,9 C 83 % 0 lf 1012,4 hPa 0,0 l/m 0 min 0 min 83 W/m 16,7 km/h (3 Bft) 97,87 %
01.02.2017 15:28 4,5 C 5,6 C 3,9 C 83 % 0 lf 1012,4 hPa 0,0 l/m 0 min 0 min 83 W/m 16,7 km/h (3 Bft) 98,15 %
01.02.2017 15:30 4,6 C 5,0 C 3,9 C 83 % 0 lf 1012,4 hPa 0,0 l/m 0 min 0 min 83 W/m 23,0 km/h (4 Bft) 98,00 %
01.02.2017 15:32 4,6 C 5,6 C 3,9 C 83 % 0 lf 1012,4 hPa 0,0 l/m 0 min 0 min 82 W/m 25,1 km/h (4 Bft) 100,00 %
01.02.2017 15:34 4,6 C 5,6 C 3,9 C 83 % 0 lf 1012,5 hPa 0,0 l/m 0 min 0 min 81 W/m 12,6 km/h (3 Bft) 95,65 %
01.02.2017 15:36 4,6 C 5,0 C 3,9 C 83 % 0 lf 1012,5 hPa 0,0 l/m 0 min 0 min 80 W/m 35,6 km/h (5 Bft) 98,15 %
01.02.2017 15:38 4,6 C 5,6 C 3,9 C 83 % 0 lf 1012,4 hPa 0,0 l/m 0 min 0 min 79 W/m 16,7 km/h (3 Bft) 98,00 %
01.02.2017 15:40 4,6 C 5,6 C 3,9 C 83 % 0 lf 1012,3 hPa 0,0 l/m 0 min 0 min 79 W/m 25,1 km/h (4 Bft) 100,00 %
01.02.2017 15:42 4,6 C 5,6 C 3,9 C 83 % 0 lf 1012,3 hPa 0,0 l/m 0 min 0 min 78 W/m 31,4 km/h (5 Bft) 97,87 %
01.02.2017 15:44 4,6 C 5,0 C 3,9 C 83 % 0 lf 1012,3 hPa 0,0 l/m 0 min 0 min 77 W/m 20,9 km/h (4 Bft) 98,15 %
01.02.2017 15:46 4,6 C 5,6 C 3,9 C 83 % 0 lf 1012,3 hPa 0,0 l/m 0 min 0 min 76 W/m 20,9 km/h (4 Bft) 97,96 %
01.02.2017 15:48 4,7 C 5,6 C 3,9 C 83 % 0 lf 1012,4 hPa 0,0 l/m 0 min 0 min 72 W/m 31,4 km/h (5 Bft) 97,87 %
01.02.2017 15:50 4,7 C 5,6 C 3,9 C 83 % 0 lf 1012,4 hPa 0,0 l/m 0 min 0 min 67 W/m 20,9 km/h (4 Bft) 100,00 %
01.02.2017 15:52 4,7 C 5,6 C 3,9 C 83 % 0 lf 1012,4 hPa 0,0 l/m 0 min 0 min 61 W/m 20,9 km/h (4 Bft) 95,74 %
01.02.2017 15:54 4,7 C 5,0 C 3,9 C 83 % 0 lf 1012,3 hPa 0,0 l/m 0 min 0 min 56 W/m 23,0 km/h (4 Bft) 95,74 %
01.02.2017 15:56 4,7 C 5,6 C 3,9 C 83 % 0 lf 1012,3 hPa 0,0 l/m 0 min 0 min 56 W/m 16,7 km/h (3 Bft) 94,44 %
01.02.2017 15:58 4,7 C 5,6 C 3,9 C 83 % 0 lf 1012,3 hPa 0,0 l/m 0 min 0 min 56 W/m 25,1 km/h (4 Bft) 97,96 %
01.02.2017 16:00 4,7 C 5,6 C 3,9 C 83 % 0 lf 1012,2 hPa 0,0 l/m 0 min 0 min 54 W/m 25,1 km/h (4 Bft) 91,89 %
01.02.2017 16:02 4,7 C 5,6 C 3,9 C 83 % 0 lf 1012,2 hPa 0,0 l/m 0 min 0 min 53 W/m 31,4 km/h (5 Bft) 95,74 %
01.02.2017 16:04 4,7 C 5,6 C 3,9 C 83 % 0 lf 1012,1 hPa 0,0 l/m 0 min 0 min 51 W/m 23,0 km/h (4 Bft) 96,30 %
01.02.2017 16:06 4,8 C 5,6 C 3,9 C 83 % 0 lf 1012,2 hPa 0,0 l/m 0 min 0 min 49 W/m 20,9 km/h (4 Bft) 96,00 %
01.02.2017 16:08 4,8 C 5,6 C 3,9 C 83 % 0 lf 1012,2 hPa 0,0 l/m 0 min 0 min 47 W/m 27,2 km/h (4 Bft) 97,22 %
01.02.2017 16:10 4,8 C 5,6 C 3,9 C 83 % 0 lf 1012,2 hPa 0,0 l/m 0 min 0 min 46 W/m 29,3 km/h (5 Bft) 97,87 %
01.02.2017 16:12 4,8 C 5,6 C 3,9 C 83 % 0 lf 1012,2 hPa 0,0 l/m 0 min 0 min 45 W/m 33,5 km/h (5 Bft) 94,44 %
01.02.2017 16:14 4,8 C 5,6 C 3,9 C 83 % 0 lf 1012,1 hPa 0,0 l/m 0 min 0 min 43 W/m 18,8 km/h (3 Bft) 96,00 %
01.02.2017 16:16 4,8 C 5,6 C 3,9 C 83 % 0 lf 1012,2 hPa 0,0 l/m 0 min 0 min 43 W/m 23,0 km/h (4 Bft) 97,30 %
01.02.2017 16:18 4,8 C 5,6 C 3,9 C 83 % 0 lf 1012,2 hPa 0,0 l/m 0 min 0 min 40 W/m 23,0 km/h (4 Bft) 100,00 %
01.02.2017 16:20 4,8 C 5,6 C 3,9 C 83 % 0 lf 1012,2 hPa 0,0 l/m 0 min 0 min 37 W/m 27,2 km/h (4 Bft) 90,74 %
01.02.2017 16:22 4,8 C 5,6 C 3,9 C 83 % 0 lf 1012,1 hPa 0,0 l/m 0 min 0 min 35 W/m 31,4 km/h (5 Bft) 97,96 %
01.02.2017 16:24 4,8 C 5,6 C 3,9 C 83 % 0 lf 1012,1 hPa 0,0 l/m 0 min 0 min 35 W/m 29,3 km/h (5 Bft) 91,89 %
01.02.2017 16:26 4,8 C 5,6 C 3,9 C 83 % 0 lf 1012,1 hPa 0,0 l/m 0 min 0 min 34 W/m 25,1 km/h (4 Bft) 97,87 %
01.02.2017 16:28 4,8 C 5,6 C 3,9 C 83 % 0 lf 1012,1 hPa 0,0 l/m 0 min 0 min 33 W/m 29,3 km/h (5 Bft) 94,44 %
01.02.2017 16:30 4,8 C 5,6 C 3,9 C 83 % 0 lf 1011,9 hPa 0,0 l/m 0 min 0 min 34 W/m 29,3 km/h (5 Bft) 100,00 %
01.02.2017 16:32 4,8 C 5,6 C 3,9 C 83 % 0 lf 1012,0 hPa 0,0 l/m 0 min 0 min 33 W/m 27,2 km/h (4 Bft) 96,00 %
01.02.2017 16:34 4,8 C 5,6 C 3,9 C 83 % 0 lf 1012,0 hPa 0,0 l/m 0 min 0 min 32 W/m 29,3 km/h (5 Bft) 100,00 %
01.02.2017 16:36 4,9 C 5,6 C 3,9 C 83 % 0 lf 1012,0 hPa 0,0 l/m 0 min 0 min 30 W/m 31,4 km/h (5 Bft) 97,87 %
01.02.2017 16:38 4,9 C 5,6 C 3,9 C 83 % 0 lf 1011,9 hPa 0,0 l/m 0 min 0 min 29 W/m 23,0 km/h (4 Bft) 96,30 %
01.02.2017 16:40 4,9 C 5,6 C 3,9 C 83 % 0 lf 1011,9 hPa 0,0 l/m 0 min 0 min 28 W/m 25,1 km/h (4 Bft) 94,00 %
01.02.2017 16:42 4,9 C 5,0 C 3,9 C 84 % 0 lf 1011,9 hPa 0,0 l/m 0 min 0 min 28 W/m 27,2 km/h (4 Bft) 91,89 %
01.02.2017 16:44 4,9 C 5,0 C 3,9 C 84 % 0 lf 1011,8 hPa 0,0 l/m 0 min 0 min 26 W/m 31,4 km/h (5 Bft) 95,65 %
01.02.2017 16:46 4,9 C 5,0 C 3,9 C 84 % 0 lf 1011,8 hPa 0,0 l/m 0 min 0 min 25 W/m 25,1 km/h (4 Bft) 93,62 %
01.02.2017 16:48 4,9 C 5,0 C 3,9 C 84 % 0 lf 1011,8 hPa 0,0 l/m 0 min 0 min 25 W/m 27,2 km/h (4 Bft) 97,87 %
01.02.2017 16:50 4,9 C 5,0 C 3,9 C 84 % 0 lf 1011,7 hPa 0,0 l/m 0 min 0 min 26 W/m 29,3 km/h (5 Bft) 95,74 %
01.02.2017 16:52 4,9 C 5,0 C 3,9 C 84 % 0 lf 1011,7 hPa 0,0 l/m 0 min 0 min 25 W/m 35,6 km/h (5 Bft) 97,87 %
01.02.2017 16:54 4,8 C 5,0 C 3,3 C 84 % 0 lf 1011,8 hPa 0,0 l/m 0 min 0 min 24 W/m 31,4 km/h (5 Bft) 93,62 %
01.02.2017 16:56 4,8 C 5,0 C 3,3 C 84 % 0 lf 1011,7 hPa 0,0 l/m 0 min 0 min 22 W/m 27,2 km/h (4 Bft) 91,30 %
01.02.2017 16:58 4,8 C 5,0 C 3,3 C 84 % 0 lf 1011,7 hPa 0,0 l/m 0 min 0 min 21 W/m 29,3 km/h (5 Bft) 93,62 %
01.02.2017 17:00 4,8 C 5,0 C 3,3 C 84 % 0 lf 1011,7 hPa 0,0 l/m 0 min 0 min 20 W/m 25,1 km/h (4 Bft) 91,49 %
01.02.2017 17:02 4,8 C 5,0 C 3,3 C 84 % 0 lf 1011,7 hPa 0,0 l/m 0 min 0 min 18 W/m 33,5 km/h (5 Bft) 95,74 %
01.02.2017 17:04 4,8 C 5,0 C 3,3 C 84 % 0 lf 1011,7 hPa 0,0 l/m 0 min 0 min 17 W/m 27,2 km/h (4 Bft) 95,74 %
01.02.2017 17:06 4,7 C 5,0 C 3,3 C 84 % 0 lf 1011,7 hPa 0,0 l/m 0 min 0 min 16 W/m 39,7 km/h (6 Bft) 91,30 %
01.02.2017 17:08 4,7 C 5,0 C 3,3 C 84 % 0 lf 1011,6 hPa 0,0 l/m 0 min 0 min 15 W/m 39,7 km/h (6 Bft) 91,49 %
01.02.2017 17:10 4,7 C 5,0 C 3,3 C 84 % 0 lf 1011,6 hPa 0,0 l/m 0 min 0 min 14 W/m 25,1 km/h (4 Bft) 95,74 %
01.02.2017 17:12 4,7 C 5,0 C 3,3 C 84 % 0 lf 1011,6 hPa 0,0 l/m 0 min 0 min 12 W/m 29,3 km/h (5 Bft) 93,62 %
01.02.2017 17:14 4,7 C 5,0 C 3,3 C 84 % 0 lf 1011,7 hPa 0,0 l/m 0 min 0 min 12 W/m 31,4 km/h (5 Bft) 93,62 %
01.02.2017 17:16 4,6 C 5,0 C 3,3 C 84 % 0 lf 1011,7 hPa 0,0 l/m 0 min 0 min 11 W/m 37,7 km/h (5 Bft) 87,23 %
01.02.2017 17:18 4,6 C 5,0 C 3,3 C 84 % 0 lf 1011,6 hPa 0,0 l/m 0 min 0 min 10 W/m 27,2 km/h (4 Bft) 97,83 %
01.02.2017 17:20 4,6 C 5,0 C 3,3 C 84 % 0 lf 1011,7 hPa 0,0 l/m 0 min 0 min 9 W/m 33,5 km/h (5 Bft) 93,62 %
01.02.2017 17:22 4,6 C 5,0 C 3,3 C 84 % 0 lf 1011,7 hPa 0,0 l/m 0 min 0 min 7 W/m 27,2 km/h (4 Bft) 97,87 %
01.02.2017 17:24 4,6 C 5,0 C 3,3 C 84 % 0 lf 1011,6 hPa 0,0 l/m 0 min 0 min 7 W/m 31,4 km/h (5 Bft) 97,87 %
01.02.2017 17:26 4,6 C 5,0 C 3,3 C 84 % 0 lf 1011,7 hPa 0,0 l/m 0 min 0 min 7 W/m 23,0 km/h (4 Bft) 97,87 %
01.02.2017 17:28 4,6 C 5,0 C 3,3 C 84 % 0 lf 1011,7 hPa 0,0 l/m 0 min 0 min 7 W/m 29,3 km/h (5 Bft) 95,74 %
01.02.2017 17:30 4,6 C 5,0 C 3,3 C 84 % 0 lf 1011,7 hPa 0,0 l/m 0 min 0 min 5 W/m 23,0 km/h (4 Bft) 97,83 %
01.02.2017 17:32 4,6 C 5,0 C 3,3 C 85 % 0 lf 1011,7 hPa 0,0 l/m 0 min 0 min 5 W/m 27,2 km/h (4 Bft) 97,87 %
01.02.2017 17:34 4,6 C 5,0 C 3,3 C 84 % 0 lf 1011,6 hPa 0,0 l/m 0 min 0 min 5 W/m 27,2 km/h (4 Bft) 97,87 %
01.02.2017 17:36 4,5 C 5,0 C 3,3 C 84 % 0 lf 1011,6 hPa 0,0 l/m 0 min 0 min 5 W/m 33,5 km/h (5 Bft) 95,74 %
01.02.2017 17:38 4,5 C 5,0 C 3,3 C 85 % 0 lf 1011,5 hPa 0,0 l/m 0 min 0 min 5 W/m 27,2 km/h (4 Bft) 91,49 %
01.02.2017 17:40 4,5 C 5,0 C 3,3 C 85 % 0 lf 1011,5 hPa 0,0 l/m 0 min 0 min 5 W/m 27,2 km/h (4 Bft) 97,87 %
01.02.2017 17:42 4,5 C 5,0 C 3,3 C 85 % 0 lf 1011,4 hPa 0,0 l/m 0 min 0 min 5 W/m 27,2 km/h (4 Bft) 97,83 %
01.02.2017 17:44 4,5 C 4,4 C 3,3 C 85 % 0 lf 1011,5 hPa 0,0 l/m 0 min 0 min 5 W/m 35,6 km/h (5 Bft) 100,00 %
01.02.2017 17:46 4,5 C 4,4 C 3,3 C 85 % 0 lf 1011,6 hPa 0,0 l/m 0 min 0 min 5 W/m 31,4 km/h (5 Bft) 100,00 %
01.02.2017 17:48 4,4 C 4,4 C 3,3 C 85 % 0 lf 1011,5 hPa 0,0 l/m 0 min 0 min 5 W/m 35,6 km/h (5 Bft) 100,00 %
01.02.2017 17:50 4,4 C 4,4 C 2,8 C 85 % 0 lf 1011,5 hPa 0,0 l/m 0 min 0 min 5 W/m 23,0 km/h (4 Bft) 93,62 %
01.02.2017 17:52 4,4 C 4,4 C 2,8 C 85 % 0 lf 1011,6 hPa 0,0 l/m 0 min 0 min 5 W/m 41,8 km/h (6 Bft) 97,87 %
01.02.2017 17:54 4,4 C 4,4 C 2,8 C 85 % 0 lf 1011,6 hPa 0,0 l/m 0 min 0 min 5 W/m 39,7 km/h (6 Bft) 97,83 %
01.02.2017 17:56 4,4 C 4,4 C 2,8 C 85 % 0 lf 1011,6 hPa 0,0 l/m 0 min 0 min 5 W/m 31,4 km/h (5 Bft) 91,49 %
01.02.2017 17:58 4,4 C 4,4 C 2,8 C 85 % 0 lf 1011,5 hPa 0,0 l/m 0 min 0 min 5 W/m 29,3 km/h (5 Bft) 97,87 %
01.02.2017 18:00 4,4 C 4,4 C 2,8 C 85 % 0 lf 1011,5 hPa 0,0 l/m 0 min 0 min 5 W/m 37,7 km/h (5 Bft) 95,74 %
01.02.2017 18:02 4,3 C 4,4 C 2,8 C 85 % 0 lf 1011,5 hPa 0,0 l/m 0 min 0 min 5 W/m 39,7 km/h (6 Bft) 97,92 %
01.02.2017 18:04 4,3 C 4,4 C 2,8 C 85 % 0 lf 1011,5 hPa 0,0 l/m 0 min 0 min 5 W/m 35,6 km/h (5 Bft) 97,92 %
01.02.2017 18:06 4,3 C 4,4 C 2,8 C 85 % 0 lf 1011,5 hPa 0,0 l/m 0 min 0 min 5 W/m 29,3 km/h (5 Bft) 91,49 %
01.02.2017 18:08 4,3 C 4,4 C 2,8 C 85 % 0 lf 1011,5 hPa 0,0 l/m 0 min 0 min 5 W/m 31,4 km/h (5 Bft) 93,48 %
01.02.2017 18:10 4,3 C 4,4 C 2,8 C 85 % 0 lf 1011,5 hPa 0,0 l/m 0 min 0 min 5 W/m 35,6 km/h (5 Bft) 95,74 %
01.02.2017 18:12 4,3 C 4,4 C 2,8 C 85 % 0 lf 1011,5 hPa 0,0 l/m 0 min 0 min 5 W/m 29,3 km/h (5 Bft) 95,74 %
01.02.2017 18:14 4,3 C 4,4 C 2,8 C 85 % 0 lf 1011,5 hPa 0,0 l/m 0 min 0 min 5 W/m 25,1 km/h (4 Bft) 97,87 %
01.02.2017 18:16 4,3 C 4,4 C 2,8 C 85 % 0 lf 1011,5 hPa 0,0 l/m 0 min 0 min 5 W/m 31,4 km/h (5 Bft) 95,74 %
01.02.2017 18:18 4,3 C 4,4 C 2,8 C 86 % 0 lf 1011,4 hPa 0,0 l/m 0 min 0 min 5 W/m 29,3 km/h (5 Bft) 93,62 %
01.02.2017 18:20 4,3 C 4,4 C 2,8 C 86 % 0 lf 1011,4 hPa 0,0 l/m 0 min 0 min 5 W/m 29,3 km/h (5 Bft) 97,83 %
01.02.2017 18:22 4,3 C 4,4 C 2,8 C 86 % 0 lf 1011,5 hPa 0,0 l/m 0 min 0 min 5 W/m 31,4 km/h (5 Bft) 97,87 %
01.02.2017 18:24 4,2 C 4,4 C 2,8 C 86 % 0 lf 1011,4 hPa 0,0 l/m 0 min 0 min 5 W/m 33,5 km/h (5 Bft) 97,87 %
01.02.2017 18:26 4,2 C 4,4 C 2,8 C 86 % 0 lf 1011,5 hPa 0,0 l/m 0 min 0 min 5 W/m 35,6 km/h (5 Bft) 95,74 %
01.02.2017 18:28 4,2 C 4,4 C 2,8 C 86 % 0 lf 1011,5 hPa 0,0 l/m 0 min 0 min 5 W/m 31,4 km/h (5 Bft) 100,00 %
01.02.2017 18:30 4,2 C 4,4 C 2,8 C 86 % 0 lf 1011,5 hPa 0,0 l/m 0 min 0 min 5 W/m 20,9 km/h (4 Bft) 97,87 %
01.02.2017 18:32 4,2 C 4,4 C 2,8 C 86 % 0 lf 1011,4 hPa 0,0 l/m 0 min 0 min 5 W/m 37,7 km/h (5 Bft) 95,65 %
01.02.2017 18:34 4,2 C 4,4 C 2,8 C 86 % 0 lf 1011,4 hPa 0,0 l/m 0 min 0 min 5 W/m 31,4 km/h (5 Bft) 93,62 %
01.02.2017 18:36 4,2 C 4,4 C 2,8 C 86 % 0 lf 1011,3 hPa 0,0 l/m 0 min 0 min 5 W/m 31,4 km/h (5 Bft) 95,74 %
01.02.2017 18:38 4,2 C 4,4 C 2,8 C 86 % 0 lf 1011,3 hPa 0,0 l/m 0 min 0 min 5 W/m 23,0 km/h (4 Bft) 97,87 %
01.02.2017 18:40 4,2 C 4,4 C 2,8 C 86 % 0 lf 1011,4 hPa 0,0 l/m 0 min 0 min 5 W/m 31,4 km/h (5 Bft) 97,87 %
01.02.2017 18:42 4,2 C 4,4 C 2,8 C 86 % 0 lf 1011,3 hPa 0,0 l/m 0 min 0 min 5 W/m 25,1 km/h (4 Bft) 97,87 %
01.02.2017 18:44 4,2 C 4,4 C 2,8 C 86 % 0 lf 1011,3 hPa 0,0 l/m 0 min 0 min 5 W/m 27,2 km/h (4 Bft) 95,65 %
01.02.2017 18:46 4,2 C 4,4 C 2,8 C 86 % 0 lf 1011,3 hPa 0,0 l/m 0 min 0 min 5 W/m 31,4 km/h (5 Bft) 93,62 %
01.02.2017 18:48 4,2 C 4,4 C 2,8 C 86 % 0 lf 1011,3 hPa 0,0 l/m 0 min 0 min 5 W/m 23,0 km/h (4 Bft) 97,87 %
01.02.2017 18:50 4,2 C 4,4 C 2,8 C 86 % 0 lf 1011,1 hPa 0,0 l/m 0 min 0 min 5 W/m 27,2 km/h (4 Bft) 93,62 %
01.02.2017 18:52 4,2 C 4,4 C 2,8 C 86 % 0 lf 1011,1 hPa 0,0 l/m 0 min 0 min 5 W/m 31,4 km/h (5 Bft) 95,74 %
01.02.2017 18:54 4,2 C 4,4 C 2,8 C 86 % 0 lf 1011,2 hPa 0,0 l/m 0 min 0 min 5 W/m 35,6 km/h (5 Bft) 95,74 %
01.02.2017 18:56 4,2 C 4,4 C 2,8 C 86 % 0 lf 1011,3 hPa 0,0 l/m 0 min 0 min 5 W/m 23,0 km/h (4 Bft) 97,83 %
01.02.2017 18:58 4,2 C 4,4 C 2,8 C 86 % 0 lf 1011,1 hPa 0,0 l/m 0 min 0 min 5 W/m 33,5 km/h (5 Bft) 93,62 %
01.02.2017 19:00 4,2 C 4,4 C 2,8 C 86 % 0 lf 1011,2 hPa 0,0 l/m 0 min 0 min 5 W/m 25,1 km/h (4 Bft) 93,62 %
01.02.2017 19:02 4,2 C 4,4 C 2,8 C 86 % 0 lf 1011,2 hPa 0,0 l/m 0 min 0 min 5 W/m 23,0 km/h (4 Bft) 95,74 %
01.02.2017 19:04 4,2 C 4,4 C 2,8 C 86 % 0 lf 1011,2 hPa 0,0 l/m 0 min 0 min 5 W/m 35,6 km/h (5 Bft) 95,74 %
01.02.2017 19:06 4,2 C 4,4 C 2,8 C 86 % 0 lf 1011,1 hPa 0,0 l/m 0 min 0 min 5 W/m 35,6 km/h (5 Bft) 97,87 %
01.02.2017 19:08 4,2 C 4,4 C 2,8 C 86 % 0 lf 1011,1 hPa 0,0 l/m 0 min 0 min 5 W/m 23,0 km/h (4 Bft) 95,65 %
01.02.2017 19:10 4,3 C 4,4 C 2,8 C 86 % 0 lf 1011,1 hPa 0,0 l/m 0 min 0 min 5 W/m 39,7 km/h (6 Bft) 95,74 %
01.02.2017 19:12 4,3 C 4,4 C 2,8 C 86 % 0 lf 1011,0 hPa 0,0 l/m 0 min 0 min 5 W/m 33,5 km/h (5 Bft) 97,87 %
01.02.2017 19:14 4,3 C 4,4 C 2,8 C 86 % 0 lf 1011,0 hPa 0,0 l/m 0 min 0 min 5 W/m 41,8 km/h (6 Bft) 95,74 %
01.02.2017 19:16 4,3 C 4,4 C 2,8 C 86 % 0 lf 1011,0 hPa 0,0 l/m 0 min 0 min 5 W/m 23,0 km/h (4 Bft) 95,74 %
01.02.2017 19:18 4,3 C 4,4 C 2,8 C 86 % 0 lf 1011,0 hPa 0,0 l/m 0 min 0 min 5 W/m 33,5 km/h (5 Bft) 95,65 %
01.02.2017 19:20 4,3 C 4,4 C 2,8 C 86 % 0 lf 1011,0 hPa 0,0 l/m 0 min 0 min 5 W/m 39,7 km/h (6 Bft) 95,74 %
01.02.2017 19:22 4,3 C 4,4 C 2,8 C 86 % 0 lf 1011,0 hPa 0,0 l/m 0 min 0 min 5 W/m 27,2 km/h (4 Bft) 95,74 %
01.02.2017 19:24 4,3 C 4,4 C 2,8 C 86 % 0 lf 1010,9 hPa 0,0 l/m 0 min 0 min 5 W/m 23,0 km/h (4 Bft) 97,87 %
01.02.2017 19:26 4,3 C 4,4 C 2,8 C 86 % 0 lf 1010,9 hPa 0,0 l/m 0 min 0 min 5 W/m 23,0 km/h (4 Bft) 97,87 %
01.02.2017 19:28 4,3 C 4,4 C 2,8 C 86 % 0 lf 1010,9 hPa 0,0 l/m 0 min 0 min 5 W/m 31,4 km/h (5 Bft) 95,74 %
01.02.2017 19:30 4,2 C 4,4 C 2,8 C 86 % 0 lf 1010,9 hPa 0,0 l/m 0 min 0 min 5 W/m 27,2 km/h (4 Bft) 97,83 %
01.02.2017 19:32 4,2 C 4,4 C 2,8 C 86 % 0 lf 1010,9 hPa 0,0 l/m 0 min 0 min 5 W/m 39,7 km/h (6 Bft) 95,74 %
01.02.2017 19:34 4,2 C 4,4 C 2,8 C 86 % 0 lf 1011,0 hPa 0,0 l/m 0 min 0 min 5 W/m 31,4 km/h (5 Bft) 95,74 %
01.02.2017 19:36 4,2 C 4,4 C 2,8 C 86 % 0 lf 1010,9 hPa 0,0 l/m 0 min 0 min 5 W/m 35,6 km/h (5 Bft) 93,62 %
01.02.2017 19:38 4,2 C 4,4 C 2,8 C 86 % 0 lf 1011,0 hPa 0,0 l/m 0 min 0 min 5 W/m 35,6 km/h (5 Bft) 93,62 %
01.02.2017 19:40 4,2 C 4,4 C 2,8 C 86 % 0 lf 1010,9 hPa 0,0 l/m 0 min 0 min 5 W/m 29,3 km/h (5 Bft) 95,74 %
01.02.2017 19:42 4,2 C 4,4 C 2,8 C 86 % 0 lf 1010,9 hPa 0,0 l/m 0 min 0 min 5 W/m 27,2 km/h (4 Bft) 97,83 %
01.02.2017 19:44 4,2 C 4,4 C 2,8 C 86 % 0 lf 1010,9 hPa 0,0 l/m 0 min 0 min 5 W/m 25,1 km/h (4 Bft) 91,49 %
01.02.2017 19:46 4,2 C 4,4 C 2,8 C 86 % 0 lf 1011,0 hPa 0,0 l/m 0 min 0 min 5 W/m 25,1 km/h (4 Bft) 89,36 %
01.02.2017 19:48 4,2 C 4,4 C 2,8 C 86 % 0 lf 1011,0 hPa 0,0 l/m 0 min 0 min 5 W/m 29,3 km/h (5 Bft) 89,36 %
01.02.2017 19:50 4,2 C 4,4 C 2,8 C 86 % 0 lf 1011,1 hPa 0,0 l/m 0 min 0 min 5 W/m 25,1 km/h (4 Bft) 93,62 %
01.02.2017 19:52 4,2 C 4,4 C 2,8 C 86 % 0 lf 1011,0 hPa 0,0 l/m 0 min 0 min 5 W/m 31,4 km/h (5 Bft) 87,23 %
01.02.2017 19:54 4,2 C 4,4 C 2,8 C 86 % 0 lf 1011,0 hPa 0,0 l/m 0 min 0 min 5 W/m 25,1 km/h (4 Bft) 93,48 %
01.02.2017 19:56 4,2 C 4,4 C 2,8 C 86 % 0 lf 1011,1 hPa 0,0 l/m 0 min 0 min 5 W/m 29,3 km/h (5 Bft) 91,49 %
01.02.2017 19:58 4,2 C 4,4 C 2,8 C 86 % 0 lf 1011,0 hPa 0,0 l/m 0 min 0 min 5 W/m 27,2 km/h (4 Bft) 93,62 %
01.02.2017 20:00 4,2 C 4,4 C 2,8 C 86 % 0 lf 1011,0 hPa 0,0 l/m 0 min 0 min 5 W/m 27,2 km/h (4 Bft) 93,62 %
01.02.2017 20:02 4,2 C 4,4 C 2,8 C 87 % 0 lf 1011,1 hPa 0,0 l/m 0 min 0 min 5 W/m 37,7 km/h (5 Bft) 91,49 %
01.02.2017 20:04 4,2 C 4,4 C 2,8 C 87 % 0 lf 1011,1 hPa 0,0 l/m 0 min 0 min 5 W/m 29,3 km/h (5 Bft) 91,49 %
01.02.2017 20:06 4,2 C 4,4 C 2,8 C 87 % 0 lf 1011,2 hPa 0,0 l/m 0 min 0 min 5 W/m 25,1 km/h (4 Bft) 93,48 %
01.02.2017 20:08 4,2 C 4,4 C 2,8 C 87 % 0 lf 1011,2 hPa 0,0 l/m 0 min 0 min 5 W/m 25,1 km/h (4 Bft) 93,62 %
01.02.2017 20:10 4,2 C 4,4 C 2,8 C 87 % 0 lf 1011,1 hPa 0,0 l/m 0 min 0 min 5 W/m 23,0 km/h (4 Bft) 91,49 %
01.02.2017 20:12 4,2 C 4,4 C 2,8 C 87 % 0 lf 1011,1 hPa 0,0 l/m 0 min 0 min 5 W/m 20,9 km/h (4 Bft) 94,00 %
01.02.2017 20:14 4,2 C 4,4 C 2,8 C 87 % 0 lf 1011,1 hPa 0,0 l/m 0 min 0 min 5 W/m 31,4 km/h (5 Bft) 93,62 %
01.02.2017 20:16 4,3 C 4,4 C 2,8 C 87 % 0 lf 1011,1 hPa 0,0 l/m 0 min 2 min 5 W/m 31,4 km/h (5 Bft) 91,43 %
01.02.2017 20:18 4,3 C 4,4 C 2,8 C 87 % 0 lf 1011,1 hPa 0,0 l/m 0 min 0 min 5 W/m 29,3 km/h (5 Bft) 97,87 %
01.02.2017 20:20 4,3 C 4,4 C 2,8 C 87 % 0 lf 1011,1 hPa 0,0 l/m 0 min 0 min 5 W/m 33,5 km/h (5 Bft) 98,31 %
01.02.2017 20:22 4,3 C 4,4 C 2,8 C 87 % 0 lf 1011,2 hPa 0,0 l/m 0 min 2 min 5 W/m 29,3 km/h (5 Bft) 100,00 %
01.02.2017 20:24 4,3 C 4,4 C 2,8 C 87 % 2 lf 1011,2 hPa 0,0 l/m 0 min 2 min 5 W/m 23,0 km/h (4 Bft) 100,00 %
01.02.2017 20:26 4,3 C 3,9 C 2,8 C 87 % 1 lf 1011,2 hPa 0,0 l/m 0 min 2 min 5 W/m 20,9 km/h (4 Bft) 96,55 %
01.02.2017 20:28 4,3 C 3,9 C 2,2 C 87 % 0 lf 1011,2 hPa 0,0 l/m 0 min 2 min 5 W/m 33,5 km/h (5 Bft) 97,87 %
01.02.2017 20:30 4,3 C 3,9 C 2,2 C 88 % 0 lf 1011,2 hPa 0,0 l/m 0 min 2 min 5 W/m 23,0 km/h (4 Bft) 100,00 %
01.02.2017 20:32 4,3 C 3,9 C 2,2 C 88 % 0 lf 1011,1 hPa 0,0 l/m 0 min 0 min 5 W/m 23,0 km/h (4 Bft) 97,14 %
01.02.2017 20:34 4,2 C 3,9 C 2,2 C 88 % 0 lf 1011,1 hPa 0,0 l/m 0 min 0 min 5 W/m 29,3 km/h (5 Bft) 100,00 %
01.02.2017 20:36 4,2 C 4,4 C 2,2 C 88 % 0 lf 1011,0 hPa 0,0 l/m 0 min 0 min 5 W/m 18,8 km/h (3 Bft) 97,14 %
01.02.2017 20:38 4,2 C 3,9 C 2,2 C 88 % 0 lf 1011,1 hPa 0,0 l/m 0 min 0 min 5 W/m 23,0 km/h (4 Bft) 96,55 %
01.02.2017 20:40 4,2 C 4,4 C 2,2 C 88 % 0 lf 1011,1 hPa 0,0 l/m 0 min 0 min 5 W/m 18,8 km/h (3 Bft) 100,00 %
01.02.2017 20:42 4,2 C 4,4 C 2,2 C 88 % 0 lf 1011,1 hPa 0,0 l/m 0 min 0 min 5 W/m 23,0 km/h (4 Bft) 96,61 %
01.02.2017 20:44 4,2 C 4,4 C 2,8 C 88 % 0 lf 1011,0 hPa 0,0 l/m 0 min 0 min 5 W/m 25,1 km/h (4 Bft) 95,74 %
01.02.2017 20:46 4,2 C 4,4 C 2,8 C 88 % 0 lf 1011,0 hPa 0,0 l/m 0 min 0 min 5 W/m 25,1 km/h (4 Bft) 100,00 %
01.02.2017 20:48 4,2 C 4,4 C 2,8 C 89 % 0 lf 1011,0 hPa 0,0 l/m 0 min 0 min 5 W/m 20,9 km/h (4 Bft) 97,87 %
01.02.2017 20:50 4,2 C 4,4 C 2,8 C 89 % 0 lf 1011,0 hPa 0,0 l/m 0 min 0 min 5 W/m 23,0 km/h (4 Bft) 100,00 %
01.02.2017 20:52 4,2 C 4,4 C 2,8 C 89 % 0 lf 1011,0 hPa 0,0 l/m 0 min 0 min 5 W/m 25,1 km/h (4 Bft) 100,00 %
01.02.2017 20:54 4,2 C 4,4 C 2,8 C 89 % 0 lf 1010,9 hPa 0,0 l/m 0 min 0 min 5 W/m 27,2 km/h (4 Bft) 95,74 %
01.02.2017 20:56 4,2 C 4,4 C 2,8 C 89 % 0 lf 1011,0 hPa 0,0 l/m 0 min 0 min 5 W/m 23,0 km/h (4 Bft) 97,87 %
01.02.2017 20:58 4,2 C 4,4 C 2,8 C 89 % 0 lf 1011,0 hPa 0,0 l/m 0 min 0 min 5 W/m 29,3 km/h (5 Bft) 97,83 %
01.02.2017 21:00 4,2 C 4,4 C 2,8 C 89 % 0 lf 1011,0 hPa 0,0 l/m 0 min 0 min 5 W/m 29,3 km/h (5 Bft) 100,00 %
01.02.2017 21:02 4,2 C 4,4 C 2,8 C 89 % 0 lf 1010,9 hPa 0,0 l/m 0 min 0 min 5 W/m 25,1 km/h (4 Bft) 98,00 %
01.02.2017 21:04 4,2 C 4,4 C 2,8 C 89 % 0 lf 1010,9 hPa 0,0 l/m 0 min 0 min 5 W/m 23,0 km/h (4 Bft) 97,14 %
01.02.2017 21:06 4,2 C 4,4 C 2,8 C 89 % 0 lf 1010,9 hPa 0,0 l/m 0 min 0 min 5 W/m 16,7 km/h (3 Bft) 96,61 %
01.02.2017 21:08 4,2 C 4,4 C 2,8 C 89 % 0 lf 1010,9 hPa 0,0 l/m 0 min 0 min 5 W/m 25,1 km/h (4 Bft) 100,00 %
01.02.2017 21:10 4,3 C 4,4 C 2,8 C 89 % 0 lf 1010,9 hPa 0,0 l/m 0 min 0 min 5 W/m 23,0 km/h (4 Bft) 100,00 %
01.02.2017 21:12 4,3 C 4,4 C 2,8 C 89 % 0 lf 1010,9 hPa 0,0 l/m 0 min 0 min 5 W/m 31,4 km/h (5 Bft) 96,55 %
01.02.2017 21:14 4,3 C 4,4 C 2,8 C 89 % 0 lf 1010,9 hPa 0,0 l/m 0 min 0 min 5 W/m 18,8 km/h (3 Bft) 97,87 %
01.02.2017 21:16 4,3 C 4,4 C 2,8 C 89 % 0 lf 1010,9 hPa 0,0 l/m 0 min 0 min 5 W/m 23,0 km/h (4 Bft) 97,87 %
01.02.2017 21:18 4,3 C 4,4 C 2,8 C 89 % 0 lf 1010,8 hPa 0,0 l/m 0 min 0 min 5 W/m 25,1 km/h (4 Bft) 100,00 %
01.02.2017 21:20 4,3 C 4,4 C 2,8 C 89 % 0 lf 1010,8 hPa 0,0 l/m 0 min 0 min 5 W/m 25,1 km/h (4 Bft) 95,74 %
01.02.2017 21:22 4,3 C 4,4 C 2,8 C 89 % 0 lf 1010,9 hPa 0,0 l/m 0 min 0 min 5 W/m 29,3 km/h (5 Bft) 100,00 %
01.02.2017 21:24 4,3 C 4,4 C 2,8 C 90 % 0 lf 1010,8 hPa 0,0 l/m 0 min 0 min 5 W/m 23,0 km/h (4 Bft) 100,00 %
01.02.2017 21:26 4,3 C 4,4 C 2,8 C 90 % 0 lf 1010,9 hPa 0,0 l/m 0 min 0 min 5 W/m 20,9 km/h (4 Bft) 96,61 %
01.02.2017 21:28 4,3 C 4,4 C 2,8 C 90 % 0 lf 1010,9 hPa 0,0 l/m 0 min 0 min 5 W/m 14,6 km/h (3 Bft) 97,87 %
01.02.2017 21:30 4,3 C 4,4 C 2,8 C 90 % 0 lf 1010,8 hPa 0,0 l/m 0 min 0 min 5 W/m 16,7 km/h (3 Bft) 97,87 %
01.02.2017 21:32 4,3 C 4,4 C 2,8 C 90 % 0 lf 1010,9 hPa 0,0 l/m 0 min 0 min 5 W/m 25,1 km/h (4 Bft) 97,14 %
01.02.2017 21:34 4,3 C 4,4 C 2,8 C 90 % 0 lf 1010,9 hPa 0,0 l/m 0 min 0 min 5 W/m 25,1 km/h (4 Bft) 100,00 %
01.02.2017 21:36 4,3 C 4,4 C 2,8 C 90 % 0 lf 1010,8 hPa 0,0 l/m 0 min 0 min 5 W/m 14,6 km/h (3 Bft) 95,65 %
01.02.2017 21:38 4,3 C 4,4 C 2,8 C 90 % 0 lf 1010,8 hPa 0,0 l/m 0 min 0 min 5 W/m 25,1 km/h (4 Bft) 98,31 %
01.02.2017 21:40 4,3 C 4,4 C 2,8 C 90 % 0 lf 1010,7 hPa 0,0 l/m 0 min 0 min 5 W/m 23,0 km/h (4 Bft) 95,74 %
01.02.2017 21:42 4,3 C 4,4 C 2,8 C 90 % 0 lf 1010,8 hPa 0,0 l/m 0 min 0 min 5 W/m 18,8 km/h (3 Bft) 97,87 %
01.02.2017 21:44 4,4 C 4,4 C 2,8 C 90 % 0 lf 1010,7 hPa 0,0 l/m 0 min 0 min 5 W/m 25,1 km/h (4 Bft) 97,83 %
01.02.2017 21:46 4,4 C 4,4 C 2,8 C 90 % 0 lf 1010,7 hPa 0,0 l/m 0 min 0 min 5 W/m 25,1 km/h (4 Bft) 94,44 %
01.02.2017 21:48 4,4 C 4,4 C 2,8 C 90 % 0 lf 1010,8 hPa 0,0 l/m 0 min 0 min 5 W/m 23,0 km/h (4 Bft) 94,83 %
01.02.2017 21:50 4,4 C 4,4 C 2,8 C 90 % 0 lf 1010,7 hPa 0,0 l/m 0 min 0 min 5 W/m 23,0 km/h (4 Bft) 93,62 %
01.02.2017 21:52 4,4 C 4,4 C 2,8 C 90 % 0 lf 1010,7 hPa 0,0 l/m 0 min 0 min 5 W/m 16,7 km/h (3 Bft) 95,74 %
01.02.2017 21:54 4,4 C 4,4 C 2,8 C 90 % 0 lf 1010,7 hPa 0,0 l/m 0 min 0 min 5 W/m 25,1 km/h (4 Bft) 97,87 %
01.02.2017 21:56 4,4 C 4,4 C 2,8 C 90 % 0 lf 1010,7 hPa 0,0 l/m 0 min 0 min 5 W/m 27,2 km/h (4 Bft) 97,14 %
01.02.2017 21:58 4,4 C 4,4 C 2,8 C 90 % 0 lf 1010,6 hPa 0,0 l/m 0 min 0 min 5 W/m 27,2 km/h (4 Bft) 98,28 %
01.02.2017 22:00 4,4 C 4,4 C 2,8 C 90 % 0 lf 1010,6 hPa 0,0 l/m 0 min 2 min 5 W/m 14,6 km/h (3 Bft) 95,74 %
01.02.2017 22:02 4,4 C 4,4 C 2,8 C 90 % 0 lf 1010,6 hPa 0,0 l/m 0 min 0 min 5 W/m 14,6 km/h (3 Bft) 97,37 %
01.02.2017 22:04 4,4 C 4,4 C 2,8 C 90 % 0 lf 1010,8 hPa 0,0 l/m 0 min 2 min 5 W/m 20,9 km/h (4 Bft) 89,13 %
01.02.2017 22:06 4,4 C 4,4 C 2,8 C 90 % 0 lf 1010,7 hPa 0,0 l/m 0 min 2 min 5 W/m 23,0 km/h (4 Bft) 97,92 %
01.02.2017 22:08 4,4 C 4,4 C 2,8 C 90 % 1 lf 1010,7 hPa 0,0 l/m 0 min 2 min 5 W/m 25,1 km/h (4 Bft) 95,74 %
01.02.2017 22:10 4,4 C 4,4 C 2,8 C 91 % 1 lf 1010,6 hPa 0,0 l/m 0 min 2 min 5 W/m 20,9 km/h (4 Bft) 97,83 %
01.02.2017 22:12 4,4 C 4,4 C 2,8 C 91 % 0 lf 1010,6 hPa 0,0 l/m 0 min 2 min 5 W/m 25,1 km/h (4 Bft) 95,74 %
01.02.2017 22:14 4,4 C 4,4 C 2,8 C 91 % 0 lf 1010,6 hPa 0,0 l/m 0 min 0 min 5 W/m 25,1 km/h (4 Bft) 97,87 %
01.02.2017 22:16 4,4 C 4,4 C 2,8 C 91 % 0 lf 1010,6 hPa 0,0 l/m 0 min 0 min 5 W/m 18,8 km/h (3 Bft) 95,74 %
01.02.2017 22:18 4,4 C 4,4 C 2,8 C 91 % 0 lf 1010,5 hPa 0,0 l/m 0 min 0 min 5 W/m 23,0 km/h (4 Bft) 95,74 %
01.02.2017 22:20 4,4 C 4,4 C 2,8 C 91 % 0 lf 1010,4 hPa 0,0 l/m 0 min 0 min 5 W/m 29,3 km/h (5 Bft) 95,74 %
01.02.2017 22:22 4,4 C 4,4 C 2,8 C 91 % 0 lf 1010,5 hPa 0,0 l/m 0 min 0 min 5 W/m 23,0 km/h (4 Bft) 97,83 %
01.02.2017 22:24 4,4 C 4,4 C 2,8 C 91 % 0 lf 1010,5 hPa 0,0 l/m 0 min 0 min 5 W/m 25,1 km/h (4 Bft) 95,74 %
01.02.2017 22:26 4,4 C 4,4 C 2,8 C 91 % 0 lf 1010,6 hPa 0,0 l/m 0 min 0 min 5 W/m 23,0 km/h (4 Bft) 93,62 %
01.02.2017 22:28 4,4 C 4,4 C 2,8 C 91 % 0 lf 1010,5 hPa 0,0 l/m 0 min 0 min 5 W/m 20,9 km/h (4 Bft) 93,62 %
01.02.2017 22:30 4,4 C 4,4 C 2,8 C 91 % 0 lf 1010,5 hPa 0,0 l/m 0 min 0 min 5 W/m 27,2 km/h (4 Bft) 91,49 %
01.02.2017 22:32 4,4 C 4,4 C 2,8 C 91 % 0 lf 1010,4 hPa 0,0 l/m 0 min 0 min 5 W/m 16,7 km/h (3 Bft) 93,62 %
01.02.2017 22:34 4,4 C 4,4 C 2,8 C 91 % 0 lf 1010,5 hPa 0,0 l/m 0 min 0 min 5 W/m 27,2 km/h (4 Bft) 91,30 %
01.02.2017 22:36 4,4 C 4,4 C 2,8 C 91 % 0 lf 1010,5 hPa 0,0 l/m 0 min 0 min 5 W/m 29,3 km/h (5 Bft) 93,62 %
01.02.2017 22:38 4,4 C 4,4 C 2,8 C 91 % 0 lf 1010,4 hPa 0,0 l/m 0 min 0 min 5 W/m 20,9 km/h (4 Bft) 93,62 %
01.02.2017 22:40 4,4 C 4,4 C 2,8 C 91 % 0 lf 1010,6 hPa 0,0 l/m 0 min 0 min 5 W/m 20,9 km/h (4 Bft) 91,49 %
01.02.2017 22:42 4,4 C 5,0 C 2,8 C 91 % 0 lf 1010,6 hPa 0,0 l/m 0 min 0 min 5 W/m 23,0 km/h (4 Bft) 92,45 %
01.02.2017 22:44 4,4 C 4,4 C 2,8 C 92 % 0 lf 1010,4 hPa 0,0 l/m 0 min 0 min 5 W/m 18,8 km/h (3 Bft) 95,74 %
01.02.2017 22:46 4,4 C 5,0 C 2,8 C 91 % 0 lf 1010,4 hPa 0,0 l/m 0 min 0 min 5 W/m 20,9 km/h (4 Bft) 93,62 %
01.02.2017 22:48 4,4 C 5,0 C 3,3 C 91 % 0 lf 1010,4 hPa 0,0 l/m 0 min 0 min 5 W/m 35,6 km/h (5 Bft) 95,65 %
01.02.2017 22:50 4,4 C 5,0 C 3,3 C 92 % 0 lf 1010,4 hPa 0,0 l/m 0 min 0 min 5 W/m 25,1 km/h (4 Bft) 93,62 %
01.02.2017 22:52 4,4 C 5,0 C 3,3 C 92 % 0 lf 1010,3 hPa 0,0 l/m 0 min 0 min 5 W/m 20,9 km/h (4 Bft) 91,49 %
01.02.2017 22:54 4,4 C 5,0 C 2,8 C 92 % 0 lf 1010,3 hPa 0,0 l/m 0 min 0 min 5 W/m 18,8 km/h (3 Bft) 91,49 %
01.02.2017 22:56 4,5 C 5,0 C 3,3 C 92 % 0 lf 1010,5 hPa 0,0 l/m 0 min 0 min 5 W/m 27,2 km/h (4 Bft) 91,49 %
01.02.2017 22:58 4,5 C 5,0 C 3,3 C 92 % 0 lf 1010,4 hPa 0,0 l/m 0 min 0 min 5 W/m 23,0 km/h (4 Bft) 91,49 %
01.02.2017 23:00 4,4 C 5,0 C 3,3 C 92 % 0 lf 1010,3 hPa 0,0 l/m 0 min 0 min 5 W/m 20,9 km/h (4 Bft) 95,65 %
01.02.2017 23:02 4,5 C 5,0 C 3,3 C 92 % 0 lf 1010,3 hPa 0,0 l/m 0 min 0 min 5 W/m 20,9 km/h (4 Bft) 93,62 %
01.02.2017 23:04 4,5 C 5,0 C 3,3 C 92 % 0 lf 1010,3 hPa 0,0 l/m 0 min 0 min 5 W/m 18,8 km/h (3 Bft) 95,74 %
01.02.2017 23:06 4,5 C 5,0 C 3,3 C 92 % 0 lf 1010,3 hPa 0,0 l/m 0 min 0 min 5 W/m 18,8 km/h (3 Bft) 91,49 %
01.02.2017 23:08 4,5 C 5,0 C 3,3 C 92 % 0 lf 1010,3 hPa 0,0 l/m 0 min 0 min 5 W/m 23,0 km/h (4 Bft) 93,62 %
01.02.2017 23:10 4,5 C 5,0 C 3,3 C 92 % 0 lf 1010,2 hPa 0,0 l/m 0 min 0 min 5 W/m 20,9 km/h (4 Bft) 95,65 %
01.02.2017 23:12 4,5 C 5,0 C 3,3 C 92 % 0 lf 1010,3 hPa 0,0 l/m 0 min 0 min 5 W/m 23,0 km/h (4 Bft) 89,36 %
01.02.2017 23:14 4,5 C 5,0 C 3,3 C 92 % 0 lf 1010,4 hPa 0,0 l/m 0 min 0 min 5 W/m 25,1 km/h (4 Bft) 91,49 %
01.02.2017 23:16 4,5 C 5,0 C 3,3 C 92 % 0 lf 1010,3 hPa 0,0 l/m 0 min 0 min 5 W/m 25,1 km/h (4 Bft) 93,62 %
01.02.2017 23:18 4,5 C 5,0 C 3,3 C 92 % 0 lf 1010,3 hPa 0,0 l/m 0 min 0 min 5 W/m 18,8 km/h (3 Bft) 95,74 %
01.02.2017 23:20 4,5 C 5,0 C 3,3 C 92 % 0 lf 1010,3 hPa 0,0 l/m 0 min 0 min 5 W/m 23,0 km/h (4 Bft) 95,74 %
01.02.2017 23:22 4,5 C 5,0 C 3,3 C 92 % 0 lf 1010,3 hPa 0,0 l/m 0 min 0 min 5 W/m 14,6 km/h (3 Bft) 93,48 %
01.02.2017 23:24 4,5 C 5,0 C 3,3 C 92 % 0 lf 1010,3 hPa 0,0 l/m 0 min 0 min 5 W/m 25,1 km/h (4 Bft) 97,87 %
01.02.2017 23:26 4,6 C 5,0 C 3,3 C 92 % 0 lf 1010,2 hPa 0,0 l/m 0 min 0 min 5 W/m 18,8 km/h (3 Bft) 95,74 %
01.02.2017 23:28 4,6 C 5,0 C 3,3 C 92 % 0 lf 1010,2 hPa 0,0 l/m 0 min 0 min 5 W/m 23,0 km/h (4 Bft) 87,23 %
01.02.2017 23:30 4,6 C 5,0 C 3,3 C 92 % 0 lf 1010,3 hPa 0,0 l/m 0 min 0 min 5 W/m 16,7 km/h (3 Bft) 93,62 %
01.02.2017 23:32 4,6 C 5,0 C 3,3 C 92 % 0 lf 1010,2 hPa 0,0 l/m 0 min 0 min 5 W/m 23,0 km/h (4 Bft) 93,62 %
01.02.2017 23:34 4,6 C 5,0 C 3,3 C 92 % 0 lf 1010,3 hPa 0,0 l/m 0 min 0 min 5 W/m 27,2 km/h (4 Bft) 93,48 %
01.02.2017 23:36 4,6 C 5,0 C 3,3 C 92 % 0 lf 1010,3 hPa 0,0 l/m 0 min 0 min 5 W/m 25,1 km/h (4 Bft) 93,62 %
01.02.2017 23:38 4,6 C 5,0 C 3,3 C 92 % 0 lf 1010,2 hPa 0,0 l/m 0 min 0 min 5 W/m 23,0 km/h (4 Bft) 93,62 %
01.02.2017 23:40 4,6 C 5,0 C 3,3 C 92 % 0 lf 1010,2 hPa 0,0 l/m 0 min 0 min 5 W/m 18,8 km/h (3 Bft) 97,87 %
01.02.2017 23:42 4,6 C 5,0 C 3,3 C 92 % 0 lf 1010,2 hPa 0,0 l/m 0 min 0 min 5 W/m 20,9 km/h (4 Bft) 97,87 %
01.02.2017 23:44 4,6 C 5,0 C 3,3 C 92 % 0 lf 1010,2 hPa 0,0 l/m 0 min 0 min 5 W/m 20,9 km/h (4 Bft) 97,87 %
01.02.2017 23:46 4,6 C 5,0 C 3,3 C 92 % 0 lf 1010,2 hPa 0,0 l/m 0 min 0 min 5 W/m 25,1 km/h (4 Bft) 95,65 %
01.02.2017 23:48 4,6 C 5,0 C 3,3 C 92 % 0 lf 1010,2 hPa 0,0 l/m 0 min 2 min 5 W/m 23,0 km/h (4 Bft) 93,62 %
01.02.2017 23:50 4,7 C 5,0 C 3,3 C 92 % 0 lf 1010,2 hPa 0,0 l/m 0 min 2 min 5 W/m 20,9 km/h (4 Bft) 97,87 %
01.02.2017 23:52 4,7 C 5,0 C 3,3 C 92 % 0 lf 1010,1 hPa 0,0 l/m 0 min 2 min 5 W/m 20,9 km/h (4 Bft) 100,00 %
01.02.2017 23:54 4,7 C 5,0 C 3,3 C 92 % 0 lf 1010,2 hPa 0,0 l/m 0 min 2 min 5 W/m 20,9 km/h (4 Bft) 97,87 %
01.02.2017 23:56 4,7 C 5,0 C 3,3 C 92 % 0 lf 1010,1 hPa 0,0 l/m 0 min 0 min 5 W/m 25,1 km/h (4 Bft) 97,87 %
01.02.2017 23:58 4,7 C 5,0 C 3,3 C 92 % 0 lf 1010,2 hPa 0,0 l/m 0 min 2 min 5 W/m 27,2 km/h (4 Bft) 91,30 %
_ Min-Zeit 07:40 00:24 00:24 12:42 00:00 23:52 - - - - 04:02 04:02
Minimum _ 0,8 C 1,1 C -1,1 C 81 % 0 lf 1010,1 hPa - - - - 0,0 km/h (0 Bft) 0,00 %
_ Max-Zeit 16:34 11:50 12:52 01:38 20:24 00:00 00:00 08:24 20:16 12:48 11:29 00:14
Maximum _ 4,9 C 8,9 C 4,4 C 93 % 2 lf 1017,0 hPa 0,0 l/m 2 min 2 min 423 W/m 46,0 km/h
SO (6 Bft)
100,00 %
Durchschnitt _ 3,0 C 3,7 C 1,6 C 88 % 0 lf 1013,9 hPa #0,0 l/m #5:08 h #34 min. 64 W/m 24,2 km/h (4 Bft) 94,79 %
© 2017 W. Hausmann